| time (UTC) | temp F | wind direction | speed MPH | gust MPH | rain 1hr in | rain 24hr in | rain mn in | humidity % | barometer mb |
| 20260503231504 | 59 | 14 | 0.0 | 4.0 | 0.00 | 0.00 | 0.00 | 33 | 1008.4 |
| 20260503231425 | 59 | 14 | 0.0 | 4.0 | 0.00 | 0.00 | 0.00 | 33 | 1008.4 |
| 20260503231325 | 59 | 13 | 1.0 | 8.0 | 0.00 | 0.00 | 0.00 | 33 | 1008.3 |
| 20260503231225 | 59 | 14 | 1.0 | 13.0 | 0.00 | 0.00 | 0.00 | 33 | 1008.3 |
| 20260503231125 | 59 | 14 | 1.0 | 13.0 | 0.00 | 0.00 | 0.00 | 33 | 1008.3 |
| 20260503231025 | 59 | 14 | 1.0 | 13.0 | 0.00 | 0.00 | 0.00 | 33 | 1008.3 |
| 20260503230904 | 59 | 14 | 1.0 | 13.0 | 0.00 | 0.00 | 0.00 | 33 | 1008.3 |
| 20260503230804 | 59 | 14 | 1.0 | 13.0 | 0.00 | 0.00 | 0.00 | 32 | 1008.3 |
| 20260503230704 | 59 | 14 | 1.0 | 13.0 | 0.00 | 0.00 | 0.00 | 33 | 1008.3 |
| 20260503230604 | 59 | 14 | 2.0 | 13.0 | 0.00 | 0.00 | 0.00 | 33 | 1008.3 |
| 20260503230504 | 59 | 14 | 2.0 | 13.0 | 0.00 | 0.00 | 0.00 | 32 | 1008.3 |
| 20260503230404 | 59 | 14 | 2.0 | 13.0 | 0.00 | 0.00 | 0.00 | 32 | 1008.3 |
| 20260503230304 | 59 | 15 | 1.0 | 9.0 | 0.00 | 0.00 | 0.00 | 32 | 1008.3 |
| 20260503230204 | 59 | 16 | 1.0 | 9.0 | 0.00 | 0.00 | 0.00 | 32 | 1008.2 |
| 20260503230104 | 59 | 9 | 2.0 | 20.0 | 0.00 | 0.00 | 0.00 | 32 | 1008.3 |
| 20260503230025 | 59 | 8 | 2.0 | 20.0 | 0.00 | 0.00 | 0.00 | 32 | 1008.3 |
| 20260503225925 | 59 | 8 | 2.0 | 20.0 | 0.00 | 0.00 | 0.00 | 32 | 1008.3 |
| 20260503225825 | 59 | 8 | 2.0 | 20.0 | 0.00 | 0.00 | 0.00 | 32 | 1008.3 |
| 20260503225725 | 59 | 7 | 2.0 | 20.0 | 0.00 | 0.00 | 0.00 | 32 | 1008.3 |
| 20260503225625 | 59 | 7 | 2.0 | 20.0 | 0.00 | 0.00 | 0.00 | 32 | 1008.4 |
| 20260503225525 | 59 | 6 | 2.0 | 20.0 | 0.00 | 0.00 | 0.00 | 32 | 1008.3 |
| 20260503225404 | 59 | 6 | 2.0 | 20.0 | 0.00 | 0.00 | 0.00 | 31 | 1008.3 |
| 20260503225305 | 59 | 6 | 2.0 | 20.0 | 0.00 | 0.00 | 0.00 | 31 | 1008.3 |
| 20260503225204 | 59 | 4 | 2.0 | 20.0 | 0.00 | 0.00 | 0.00 | 31 | 1008.2 |
| 20260503225104 | 59 | 6 | 1.0 | 14.0 | 0.00 | 0.00 | 0.00 | 30 | 1008.2 |
| 20260503225004 | 59 | 7 | 1.0 | 11.0 | 0.00 | 0.00 | 0.00 | 30 | 1008.2 |
| 20260503224904 | 59 | 8 | 1.0 | 11.0 | 0.00 | 0.00 | 0.00 | 30 | 1008.2 |
| 20260503224804 | 59 | 9 | 2.0 | 11.0 | 0.00 | 0.00 | 0.00 | 30 | 1008.2 |
| 20260503224704 | 59 | 10 | 2.0 | 11.0 | 0.00 | 0.00 | 0.00 | 30 | 1008.2 |
| 20260503224604 | 59 | 14 | 1.0 | 11.0 | 0.00 | 0.00 | 0.00 | 30 | 1008.2 |
| 20260503224504 | 59 | 15 | 1.0 | 11.0 | 0.00 | 0.00 | 0.00 | 30 | 1008.2 |
| 20260503224404 | 60 | 18 | 1.0 | 11.0 | 0.00 | 0.00 | 0.00 | 30 | 1008.2 |
| 20260503224304 | 59 | 17 | 2.0 | 11.0 | 0.00 | 0.00 | 0.00 | 30 | 1008.2 |
| 20260503224204 | 59 | 17 | 2.0 | 11.0 | 0.00 | 0.00 | 0.00 | 30 | 1008.2 |
| 20260503224104 | 59 | 17 | 2.0 | 11.0 | 0.00 | 0.00 | 0.00 | 30 | 1008.2 |
| 20260503224004 | 59 | 17 | 2.0 | 11.0 | 0.00 | 0.00 | 0.00 | 30 | 1008.2 |
| 20260503223904 | 59 | 18 | 2.0 | 10.0 | 0.00 | 0.00 | 0.00 | 30 | 1008.3 |
| 20260503223804 | 59 | 19 | 2.0 | 10.0 | 0.00 | 0.00 | 0.00 | 30 | 1008.3 |
| 20260503223704 | 59 | 19 | 2.0 | 10.0 | 0.00 | 0.00 | 0.00 | 30 | 1008.1 |
| 20260503223604 | 59 | 19 | 2.0 | 10.0 | 0.00 | 0.00 | 0.00 | 29 | 1008.1 |
| 20260503223504 | 60 | 19 | 3.0 | 10.0 | 0.00 | 0.00 | 0.00 | 29 | 1008.1 |
| 20260503223404 | 60 | 18 | 2.0 | 10.0 | 0.00 | 0.00 | 0.00 | 29 | 1008.0 |
| 20260503223304 | 60 | 19 | 2.0 | 10.0 | 0.00 | 0.00 | 0.00 | 30 | 1008.0 |
| 20260503223204 | 60 | 17 | 2.0 | 10.0 | 0.00 | 0.00 | 0.00 | 30 | 1008.0 |
| 20260503223104 | 60 | 16 | 3.0 | 12.0 | 0.00 | 0.00 | 0.00 | 29 | 1008.0 |
| 20260503223004 | 60 | 16 | 3.0 | 13.0 | 0.00 | 0.00 | 0.00 | 29 | 1008.0 |
| 20260503222904 | 60 | 15 | 2.0 | 13.0 | 0.00 | 0.00 | 0.00 | 29 | 1008.0 |
| 20260503222804 | 59 | 15 | 2.0 | 13.0 | 0.00 | 0.00 | 0.00 | 29 | 1008.0 |
| 20260503222704 | 59 | 14 | 2.0 | 13.0 | 0.00 | 0.00 | 0.00 | 29 | 1008.0 |
| 20260503222604 | 59 | 14 | 3.0 | 13.0 | 0.00 | 0.00 | 0.00 | 29 | 1007.9 |
| 20260503222504 | 59 | 15 | 3.0 | 13.0 | 0.00 | 0.00 | 0.00 | 29 | 1007.9 |
| 20260503222404 | 59 | 15 | 3.0 | 13.0 | 0.00 | 0.00 | 0.00 | 29 | 1007.9 |
| 20260503222304 | 59 | 15 | 3.0 | 13.0 | 0.00 | 0.00 | 0.00 | 29 | 1007.9 |
| 20260503222204 | 59 | 17 | 2.0 | 13.0 | 0.00 | 0.00 | 0.00 | 29 | 1007.9 |
| 20260503222104 | 59 | 19 | 2.0 | 13.0 | 0.00 | 0.00 | 0.00 | 30 | 1008.0 |
| 20260503222004 | 59 | 19 | 2.0 | 9.0 | 0.00 | 0.00 | 0.00 | 29 | 1008.0 |
| 20260503221904 | 59 | 17 | 3.0 | 16.0 | 0.00 | 0.00 | 0.00 | 29 | 1008.0 |
| 20260503221804 | 59 | 16 | 3.0 | 16.0 | 0.00 | 0.00 | 0.00 | 29 | 1008.0 |
| 20260503221704 | 59 | 18 | 3.0 | 16.0 | 0.00 | 0.00 | 0.00 | 29 | 1007.9 |
| 20260503221604 | 59 | 18 | 2.0 | 16.0 | 0.00 | 0.00 | 0.00 | 29 | 1007.9 |
| 20260503221504 | 59 | 17 | 2.0 | 16.0 | 0.00 | 0.00 | 0.00 | 29 | 1007.9 |
| 20260503221404 | 59 | 16 | 2.0 | 16.0 | 0.00 | 0.00 | 0.00 | 29 | 1008.0 |
| 20260503221304 | 59 | 16 | 2.0 | 16.0 | 0.00 | 0.00 | 0.00 | 29 | 1008.0 |
| 20260503221204 | 59 | 16 | 2.0 | 16.0 | 0.00 | 0.00 | 0.00 | 30 | 1008.0 |
| 20260503221104 | 59 | 14 | 2.0 | 16.0 | 0.00 | 0.00 | 0.00 | 29 | 1008.0 |
| 20260503221004 | 59 | 14 | 2.0 | 16.0 | 0.00 | 0.00 | 0.00 | 29 | 1007.9 |
| 20260503220904 | 59 | 16 | 1.0 | 7.0 | 0.00 | 0.00 | 0.00 | 29 | 1007.9 |
| 20260503220804 | 59 | 16 | 1.0 | 7.0 | 0.00 | 0.00 | 0.00 | 29 | 1007.9 |
| 20260503220704 | 59 | 11 | 1.0 | 5.0 | 0.00 | 0.00 | 0.00 | 29 | 1007.9 |
| 20260503220604 | 59 | 18 | 1.0 | 6.0 | 0.00 | 0.00 | 0.00 | 29 | 1007.9 |
| 20260503220504 | 59 | 18 | 1.0 | 6.0 | 0.00 | 0.00 | 0.00 | 29 | 1007.9 |
| 20260503220404 | 59 | 18 | 1.0 | 6.0 | 0.00 | 0.00 | 0.00 | 28 | 1007.9 |
| 20260503220304 | 59 | 18 | 1.0 | 6.0 | 0.00 | 0.00 | 0.00 | 28 | 1007.9 |
| 20260503220204 | 60 | 23 | 0.0 | 6.0 | 0.00 | 0.00 | 0.00 | 29 | 1007.9 |
| 20260503220104 | 59 | 41 | 0.0 | 6.0 | 0.00 | 0.00 | 0.00 | 30 | 1008.0 |
| 20260503220004 | 59 | 53 | 1.0 | 7.0 | 0.00 | 0.00 | 0.00 | 29 | 1008.0 |
| 20260503215904 | 59 | 40 | 1.0 | 7.0 | 0.00 | 0.00 | 0.00 | 29 | 1007.9 |
| 20260503215804 | 60 | 38 | 1.0 | 7.0 | 0.00 | 0.00 | 0.00 | 29 | 1007.9 |
| 20260503215704 | 60 | 33 | 1.0 | 7.0 | 0.00 | 0.00 | 0.00 | 29 | 1007.9 |
| 20260503215604 | 60 | 27 | 1.0 | 10.0 | 0.00 | 0.00 | 0.00 | 29 | 1007.9 |
| 20260503215525 | 60 | 24 | 2.0 | 11.0 | 0.00 | 0.00 | 0.00 | 29 | 1007.9 |
| 20260503215425 | 59 | 24 | 2.0 | 11.0 | 0.00 | 0.00 | 0.00 | 29 | 1007.9 |
| 20260503215325 | 59 | 24 | 2.0 | 11.0 | 0.00 | 0.00 | 0.00 | 29 | 1008.0 |
| 20260503215225 | 59 | 23 | 2.0 | 11.0 | 0.00 | 0.00 | 0.00 | 29 | 1008.0 |
| 20260503215125 | 59 | 22 | 2.0 | 11.0 | 0.00 | 0.00 | 0.00 | 29 | 1008.0 |
| 20260503215004 | 59 | 20 | 2.0 | 11.0 | 0.00 | 0.00 | 0.00 | 28 | 1008.0 |
| 20260503214904 | 60 | 20 | 2.0 | 11.0 | 0.00 | 0.00 | 0.00 | 28 | 1008.0 |
| 20260503214804 | 60 | 21 | 2.0 | 11.0 | 0.00 | 0.00 | 0.00 | 28 | 1008.0 |
| 20260503214704 | 60 | 20 | 1.0 | 11.0 | 0.00 | 0.00 | 0.00 | 28 | 1008.0 |
| 20260503214604 | 60 | 19 | 1.0 | 11.0 | 0.00 | 0.00 | 0.00 | 29 | 1008.0 |
| 20260503214504 | 60 | 20 | 1.0 | 6.0 | 0.00 | 0.00 | 0.00 | 30 | 1007.9 |
| 20260503214404 | 60 | 18 | 2.0 | 14.0 | 0.00 | 0.00 | 0.00 | 28 | 1007.9 |
| 20260503214304 | 60 | 17 | 2.0 | 14.0 | 0.00 | 0.00 | 0.00 | 28 | 1007.8 |
| 20260503214204 | 60 | 17 | 2.0 | 14.0 | 0.00 | 0.00 | 0.00 | 28 | 1007.9 |
| 20260503214104 | 60 | 16 | 2.0 | 14.0 | 0.00 | 0.00 | 0.00 | 29 | 1007.9 |
| 20260503214004 | 60 | 16 | 2.0 | 14.0 | 0.00 | 0.00 | 0.00 | 29 | 1007.8 |
| 20260503213904 | 60 | 17 | 2.0 | 14.0 | 0.00 | 0.00 | 0.00 | 29 | 1007.8 |
| 20260503213804 | 60 | 17 | 2.0 | 14.0 | 0.00 | 0.00 | 0.00 | 29 | 1007.9 |
| 20260503213704 | 60 | 17 | 2.0 | 14.0 | 0.00 | 0.00 | 0.00 | 29 | 1007.9 |
| 20260503213604 | 60 | 17 | 2.0 | 14.0 | 0.00 | 0.00 | 0.00 | 29 | 1007.9 |
| 20260503213504 | 60 | 17 | 2.0 | 14.0 | 0.00 | 0.00 | 0.00 | 28 | 1007.9 |
| 20260503213404 | 60 | 18 | 1.0 | 14.0 | 0.00 | 0.00 | 0.00 | 30 | 1007.9 |
| 20260503213304 | 60 | 31 | 0.0 | 6.0 | 0.00 | 0.00 | 0.00 | 30 | 1007.9 |
| 20260503213204 | 60 | 34 | 0.0 | 6.0 | 0.00 | 0.00 | 0.00 | 29 | 1007.8 |
| 20260503213104 | 60 | 34 | 0.0 | 6.0 | 0.00 | 0.00 | 0.00 | 29 | 1007.8 |
| 20260503213025 | 60 | 34 | 0.0 | 6.0 | 0.00 | 0.00 | 0.00 | 29 | 1007.8 |
| 20260503212925 | 60 | 34 | 0.0 | 6.0 | 0.00 | 0.00 | 0.00 | 29 | 1007.8 |
| 20260503212825 | 60 | 30 | 1.0 | 7.0 | 0.00 | 0.00 | 0.00 | 29 | 1007.7 |
| 20260503212725 | 60 | 26 | 1.0 | 11.0 | 0.00 | 0.00 | 0.00 | 29 | 1007.7 |
| 20260503212625 | 59 | 25 | 2.0 | 11.0 | 0.00 | 0.00 | 0.00 | 30 | 1007.8 |
| 20260503212525 | 59 | 25 | 2.0 | 11.0 | 0.00 | 0.00 | 0.00 | 29 | 1007.8 |
| 20260503212425 | 59 | 26 | 2.0 | 11.0 | 0.00 | 0.00 | 0.00 | 29 | 1007.8 |
| 20260503212325 | 59 | 26 | 2.0 | 11.0 | 0.00 | 0.00 | 0.00 | 29 | 1007.9 |
| 20260503212225 | 59 | 24 | 2.0 | 11.0 | 0.00 | 0.00 | 0.00 | 30 | 1007.9 |
| 20260503212125 | 59 | 22 | 3.0 | 11.0 | 0.00 | 0.00 | 0.00 | 30 | 1007.9 |
| 20260503212004 | 59 | 21 | 3.0 | 13.0 | 0.00 | 0.00 | 0.00 | 29 | 1007.8 |
| 20260503211904 | 58 | 20 | 3.0 | 13.0 | 0.00 | 0.00 | 0.00 | 29 | 1007.9 |
| 20260503211804 | 58 | 19 | 3.0 | 13.0 | 0.00 | 0.00 | 0.00 | 29 | 1007.9 |
| 20260503211704 | 58 | 19 | 3.0 | 13.0 | 0.00 | 0.00 | 0.00 | 29 | 1007.8 |
| 20260503211604 | 59 | 17 | 2.0 | 13.0 | 0.00 | 0.00 | 0.00 | 29 | 1007.8 |
| 20260503211504 | 59 | 16 | 2.0 | 13.0 | 0.00 | 0.00 | 0.00 | 29 | 1007.9 |
| 20260503211404 | 59 | 15 | 2.0 | 13.0 | 0.00 | 0.00 | 0.00 | 30 | 1007.9 |
| 20260503211304 | 59 | 15 | 2.0 | 13.0 | 0.00 | 0.00 | 0.00 | 29 | 1007.9 |
| 20260503211204 | 59 | 15 | 3.0 | 13.0 | 0.00 | 0.00 | 0.00 | 29 | 1007.8 |
| 20260503211104 | 59 | 15 | 3.0 | 14.0 | 0.00 | 0.00 | 0.00 | 30 | 1007.8 |
| 20260503211004 | 59 | 15 | 3.0 | 14.0 | 0.00 | 0.00 | 0.00 | 32 | 1007.9 |
| 20260503210904 | 59 | 16 | 3.0 | 14.0 | 0.00 | 0.00 | 0.00 | 32 | 1007.8 |
| 20260503210804 | 58 | 16 | 3.0 | 14.0 | 0.00 | 0.00 | 0.00 | 31 | 1007.8 |
| 20260503210704 | 58 | 17 | 3.0 | 14.0 | 0.00 | 0.00 | 0.00 | 31 | 1007.9 |
| 20260503210604 | 58 | 16 | 4.0 | 14.0 | 0.00 | 0.00 | 0.00 | 30 | 1007.9 |
| 20260503210504 | 58 | 15 | 4.0 | 19.0 | 0.00 | 0.00 | 0.00 | 30 | 1007.9 |
| 20260503210404 | 58 | 14 | 4.0 | 19.0 | 0.00 | 0.00 | 0.00 | 30 | 1008.0 |
| 20260503210304 | 58 | 15 | 4.0 | 19.0 | 0.00 | 0.00 | 0.00 | 30 | 1008.0 |
| 20260503210204 | 58 | 16 | 3.0 | 19.0 | 0.00 | 0.00 | 0.00 | 30 | 1008.0 |
| 20260503210104 | 58 | 17 | 3.0 | 19.0 | 0.00 | 0.00 | 0.00 | 30 | 1008.0 |
| 20260503210005 | 58 | 17 | 3.0 | 19.0 | 0.00 | 0.00 | 0.00 | 30 | 1008.0 |
| 20260503205904 | 58 | 17 | 3.0 | 19.0 | 0.00 | 0.00 | 0.00 | 31 | 1007.8 |
| 20260503205804 | 58 | 16 | 2.0 | 19.0 | 0.00 | 0.00 | 0.00 | 30 | 1007.8 |
| 20260503205704 | 58 | 16 | 2.0 | 19.0 | 0.00 | 0.00 | 0.00 | 30 | 1008.0 |
| 20260503205604 | 58 | 16 | 2.0 | 19.0 | 0.00 | 0.00 | 0.00 | 30 | 1007.9 |
| 20260503205504 | 58 | 23 | 1.0 | 13.0 | 0.00 | 0.00 | 0.00 | 30 | 1007.9 |
| 20260503205404 | 58 | 25 | 1.0 | 11.0 | 0.00 | 0.00 | 0.00 | 30 | 1007.9 |
| 20260503205304 | 58 | 24 | 1.0 | 11.0 | 0.00 | 0.00 | 0.00 | 31 | 1007.9 |
| 20260503205204 | 58 | 17 | 2.0 | 14.0 | 0.00 | 0.00 | 0.00 | 31 | 1007.9 |
| 20260503205104 | 58 | 17 | 2.0 | 14.0 | 0.00 | 0.00 | 0.00 | 31 | 1007.8 |
| 20260503205004 | 58 | 18 | 2.0 | 14.0 | 0.00 | 0.00 | 0.00 | 31 | 1007.9 |
| 20260503204904 | 58 | 18 | 2.0 | 14.0 | 0.00 | 0.00 | 0.00 | 30 | 1007.9 |
| 20260503204804 | 58 | 18 | 2.0 | 14.0 | 0.00 | 0.00 | 0.00 | 31 | 1007.9 |
| 20260503204704 | 58 | 17 | 2.0 | 14.0 | 0.00 | 0.00 | 0.00 | 32 | 1007.9 |
| 20260503204604 | 58 | 18 | 2.0 | 14.0 | 0.00 | 0.00 | 0.00 | 31 | 1007.9 |
| 20260503204504 | 58 | 19 | 3.0 | 14.0 | 0.00 | 0.00 | 0.00 | 32 | 1007.9 |
| 20260503204404 | 58 | 19 | 3.0 | 14.0 | 0.00 | 0.00 | 0.00 | 31 | 1007.9 |
| 20260503204304 | 58 | 17 | 2.0 | 14.0 | 0.00 | 0.00 | 0.00 | 31 | 1008.0 |
| 20260503204204 | 58 | 20 | 2.0 | 12.0 | 0.00 | 0.00 | 0.00 | 32 | 1008.0 |
| 20260503204104 | 58 | 19 | 2.0 | 11.0 | 0.00 | 0.00 | 0.00 | 32 | 1008.0 |
| 20260503204004 | 58 | 20 | 2.0 | 12.0 | 0.00 | 0.00 | 0.00 | 32 | 1008.0 |
| 20260503203904 | 58 | 20 | 2.0 | 12.0 | 0.00 | 0.00 | 0.00 | 33 | 1008.0 |
| 20260503203804 | 58 | 20 | 2.0 | 12.0 | 0.00 | 0.00 | 0.00 | 32 | 1007.9 |
| 20260503203704 | 58 | 20 | 2.0 | 12.0 | 0.00 | 0.00 | 0.00 | 32 | 1007.9 |
| 20260503203604 | 58 | 20 | 2.0 | 12.0 | 0.00 | 0.00 | 0.00 | 33 | 1007.9 |
| 20260503203504 | 57 | 19 | 2.0 | 12.0 | 0.00 | 0.00 | 0.00 | 32 | 1007.8 |
| 20260503203404 | 57 | 18 | 3.0 | 19.0 | 0.00 | 0.00 | 0.00 | 32 | 1007.8 |
| 20260503203304 | 57 | 18 | 3.0 | 19.0 | 0.00 | 0.00 | 0.00 | 32 | 1008.0 |
| 20260503203204 | 58 | 18 | 3.0 | 19.0 | 0.00 | 0.00 | 0.00 | 31 | 1008.0 |
| 20260503203104 | 57 | 19 | 3.0 | 19.0 | 0.00 | 0.00 | 0.00 | 33 | 1008.0 |
| 20260503203004 | 57 | 18 | 3.0 | 19.0 | 0.00 | 0.00 | 0.00 | 32 | 1008.0 |
| 20260503202925 | 57 | 18 | 3.0 | 19.0 | 0.00 | 0.00 | 0.00 | 32 | 1008.0 |
| 20260503202825 | 57 | 17 | 3.0 | 19.0 | 0.00 | 0.00 | 0.00 | 32 | 1008.0 |
| 20260503202725 | 57 | 17 | 3.0 | 19.0 | 0.00 | 0.00 | 0.00 | 33 | 1008.0 |
| 20260503202625 | 57 | 16 | 3.0 | 19.0 | 0.00 | 0.00 | 0.00 | 32 | 1008.0 |
| 20260503202525 | 57 | 15 | 4.0 | 19.0 | 0.00 | 0.00 | 0.00 | 32 | 1008.0 |
| 20260503202425 | 57 | 14 | 3.0 | 18.0 | 0.00 | 0.00 | 0.00 | 32 | 1008.0 |
| 20260503202325 | 57 | 13 | 3.0 | 12.0 | 0.00 | 0.00 | 0.00 | 32 | 1007.9 |
| 20260503202225 | 57 | 14 | 3.0 | 15.0 | 0.00 | 0.00 | 0.00 | 33 | 1008.0 |
| 20260503202125 | 57 | 14 | 3.0 | 15.0 | 0.00 | 0.00 | 0.00 | 32 | 1008.0 |
| 20260503202025 | 57 | 14 | 4.0 | 15.0 | 0.00 | 0.00 | 0.00 | 31 | 1008.2 |
| 20260503201904 | 57 | 14 | 4.0 | 15.0 | 0.00 | 0.00 | 0.00 | 32 | 1008.1 |
| 20260503201804 | 57 | 14 | 4.0 | 15.0 | 0.00 | 0.00 | 0.00 | 32 | 1008.1 |
| 20260503201704 | 57 | 13 | 4.0 | 15.0 | 0.00 | 0.00 | 0.00 | 32 | 1008.0 |
| 20260503201604 | 57 | 13 | 4.0 | 15.0 | 0.00 | 0.00 | 0.00 | 32 | 1008.0 |
| 20260503201504 | 57 | 13 | 4.0 | 15.0 | 0.00 | 0.00 | 0.00 | 32 | 1008.1 |
| 20260503201404 | 57 | 13 | 3.0 | 15.0 | 0.00 | 0.00 | 0.00 | 32 | 1008.1 |
| 20260503201304 | 57 | 13 | 3.0 | 15.0 | 0.00 | 0.00 | 0.00 | 33 | 1008.1 |
| 20260503201204 | 57 | 12 | 3.0 | 15.0 | 0.00 | 0.00 | 0.00 | 32 | 1008.0 |
| 20260503201104 | 57 | 9 | 4.0 | 16.0 | 0.00 | 0.00 | 0.00 | 32 | 1008.0 |
| 20260503201004 | 57 | 11 | 4.0 | 16.0 | 0.00 | 0.00 | 0.00 | 32 | 1008.2 |
| 20260503200904 | 57 | 12 | 3.0 | 16.0 | 0.00 | 0.00 | 0.00 | 32 | 1008.2 |
| 20260503200804 | 57 | 12 | 3.0 | 16.0 | 0.00 | 0.00 | 0.00 | 32 | 1008.2 |
| 20260503200704 | 58 | 12 | 3.0 | 16.0 | 0.00 | 0.00 | 0.00 | 32 | 1008.2 |
| 20260503200604 | 58 | 12 | 3.0 | 16.0 | 0.00 | 0.00 | 0.00 | 33 | 1008.1 |
| 20260503200504 | 57 | 13 | 3.0 | 16.0 | 0.00 | 0.00 | 0.00 | 32 | 1008.1 |
| 20260503200425 | 57 | 13 | 4.0 | 16.0 | 0.00 | 0.00 | 0.00 | 32 | 1008.2 |
| 20260503200325 | 57 | 15 | 5.0 | 19.0 | 0.00 | 0.00 | 0.00 | 32 | 1008.2 |
| 20260503200225 | 57 | 15 | 5.0 | 19.0 | 0.00 | 0.00 | 0.00 | 32 | 1008.2 |
| 20260503200125 | 57 | 17 | 4.0 | 19.0 | 0.00 | 0.00 | 0.00 | 32 | 1008.2 |
| 20260503200025 | 57 | 19 | 4.0 | 19.0 | 0.00 | 0.00 | 0.00 | 33 | 1008.0 |
| 20260503195925 | 57 | 18 | 3.0 | 19.0 | 0.00 | 0.00 | 0.00 | 33 | 1008.1 |
| 20260503195804 | 57 | 18 | 4.0 | 19.0 | 0.00 | 0.00 | 0.00 | 33 | 1008.1 |
| 20260503195704 | 57 | 19 | 4.0 | 19.0 | 0.00 | 0.00 | 0.00 | 33 | 1008.1 |
| 20260503195604 | 57 | 19 | 4.0 | 19.0 | 0.00 | 0.00 | 0.00 | 32 | 1008.2 |
| 20260503195504 | 57 | 17 | 4.0 | 19.0 | 0.00 | 0.00 | 0.00 | 33 | 1008.2 |
| 20260503195404 | 57 | 17 | 4.0 | 20.0 | 0.00 | 0.00 | 0.00 | 33 | 1008.2 |
| 20260503195304 | 57 | 16 | 3.0 | 20.0 | 0.00 | 0.00 | 0.00 | 34 | 1008.2 |
| 20260503195204 | 56 | 15 | 4.0 | 20.0 | 0.00 | 0.00 | 0.00 | 33 | 1008.2 |
| 20260503195104 | 56 | 15 | 5.0 | 20.0 | 0.00 | 0.00 | 0.00 | 32 | 1008.2 |
| 20260503195005 | 56 | 12 | 5.0 | 20.0 | 0.00 | 0.00 | 0.00 | 33 | 1008.3 |
| 20260503194904 | 56 | 12 | 5.0 | 20.0 | 0.00 | 0.00 | 0.00 | 33 | 1008.3 |
| 20260503194804 | 56 | 13 | 6.0 | 20.0 | 0.00 | 0.00 | 0.00 | 33 | 1008.3 |
| 20260503194704 | 56 | 12 | 5.0 | 20.0 | 0.00 | 0.00 | 0.00 | 33 | 1008.3 |
| 20260503194604 | 56 | 12 | 5.0 | 20.0 | 0.00 | 0.00 | 0.00 | 33 | 1008.4 |
| 20260503194504 | 56 | 14 | 5.0 | 20.0 | 0.00 | 0.00 | 0.00 | 33 | 1008.4 |
| 20260503194404 | 56 | 16 | 4.0 | 20.0 | 0.00 | 0.00 | 0.00 | 33 | 1008.4 |
| 20260503194325 | 56 | 14 | 4.0 | 20.0 | 0.00 | 0.00 | 0.00 | 32 | 1008.5 |
| 20260503194225 | 56 | 14 | 3.0 | 20.0 | 0.00 | 0.00 | 0.00 | 32 | 1008.5 |
| 20260503194125 | 56 | 14 | 3.0 | 19.0 | 0.00 | 0.00 | 0.00 | 33 | 1008.6 |
| 20260503194025 | 56 | 16 | 2.0 | 17.0 | 0.00 | 0.00 | 0.00 | 32 | 1008.6 |
| 20260503193925 | 56 | 18 | 1.0 | 15.0 | 0.00 | 0.00 | 0.00 | 34 | 1008.4 |
| 20260503193804 | 56 | 20 | 1.0 | 9.0 | 0.00 | 0.00 | 0.00 | 33 | 1008.5 |
| 20260503193704 | 56 | 18 | 1.0 | 9.0 | 0.00 | 0.00 | 0.00 | 33 | 1008.4 |
| 20260503193604 | 57 | 13 | 2.0 | 20.0 | 0.00 | 0.00 | 0.00 | 33 | 1008.4 |
| 20260503193504 | 57 | 13 | 2.0 | 20.0 | 0.00 | 0.00 | 0.00 | 33 | 1008.4 |
| 20260503193404 | 57 | 12 | 2.0 | 20.0 | 0.00 | 0.00 | 0.00 | 34 | 1008.4 |
| 20260503193304 | 57 | 14 | 2.0 | 20.0 | 0.00 | 0.00 | 0.00 | 33 | 1008.4 |
| 20260503193204 | 57 | 14 | 2.0 | 20.0 | 0.00 | 0.00 | 0.00 | 34 | 1008.3 |
| 20260503193104 | 57 | 15 | 2.0 | 20.0 | 0.00 | 0.00 | 0.00 | 35 | 1008.3 |
| 20260503193004 | 56 | 15 | 2.0 | 20.0 | 0.00 | 0.00 | 0.00 | 34 | 1008.4 |
| 20260503192904 | 56 | 16 | 3.0 | 20.0 | 0.00 | 0.00 | 0.00 | 34 | 1008.4 |
| 20260503192804 | 56 | 16 | 3.0 | 20.0 | 0.00 | 0.00 | 0.00 | 34 | 1008.4 |
| 20260503192704 | 56 | 17 | 3.0 | 20.0 | 0.00 | 0.00 | 0.00 | 35 | 1008.4 |
| 20260503192604 | 56 | 18 | 3.0 | 14.0 | 0.00 | 0.00 | 0.00 | 35 | 1008.4 |
| 20260503192504 | 56 | 19 | 3.0 | 14.0 | 0.00 | 0.00 | 0.00 | 34 | 1008.4 |
| 20260503192404 | 56 | 20 | 3.0 | 14.0 | 0.00 | 0.00 | 0.00 | 35 | 1008.5 |
| 20260503192305 | 56 | 21 | 3.0 | 14.0 | 0.00 | 0.00 | 0.00 | 36 | 1008.5 |
| 20260503192204 | 56 | 19 | 3.0 | 14.0 | 0.00 | 0.00 | 0.00 | 35 | 1008.5 |
| 20260503192104 | 55 | 17 | 4.0 | 17.0 | 0.00 | 0.00 | 0.00 | 35 | 1008.5 |
| 20260503192004 | 55 | 17 | 4.0 | 17.0 | 0.00 | 0.00 | 0.00 | 36 | 1008.5 |
| 20260503191904 | 55 | 16 | 4.0 | 17.0 | 0.00 | 0.00 | 0.00 | 35 | 1008.5 |
| 20260503191804 | 55 | 14 | 5.0 | 17.0 | 0.00 | 0.00 | 0.00 | 35 | 1008.5 |
| 20260503191704 | 55 | 13 | 5.0 | 18.0 | 0.00 | 0.00 | 0.00 | 35 | 1008.5 |
| 20260503191604 | 55 | 12 | 5.0 | 22.0 | 0.00 | 0.00 | 0.00 | 35 | 1008.5 |
| 20260503191504 | 55 | 11 | 6.0 | 22.0 | 0.00 | 0.00 | 0.00 | 36 | 1008.5 |
| 20260503191404 | 55 | 11 | 6.0 | 22.0 | 0.00 | 0.00 | 0.00 | 36 | 1008.6 |
| 20260503191325 | 55 | 10 | 5.0 | 22.0 | 0.00 | 0.00 | 0.00 | 36 | 1008.6 |
| 20260503191225 | 54 | 10 | 5.0 | 22.0 | 0.00 | 0.00 | 0.00 | 36 | 1008.7 |
| 20260503191125 | 54 | 11 | 4.0 | 22.0 | 0.00 | 0.00 | 0.00 | 35 | 1008.7 |
| 20260503191025 | 55 | 10 | 4.0 | 22.0 | 0.00 | 0.00 | 0.00 | 35 | 1008.6 |
| 20260503190926 | 55 | 11 | 5.0 | 22.0 | 0.00 | 0.00 | 0.00 | 35 | 1008.6 |
| 20260503190804 | 55 | 13 | 5.0 | 22.0 | 0.00 | 0.00 | 0.00 | 35 | 1008.7 |
| 20260503190704 | 55 | 14 | 5.0 | 22.0 | 0.00 | 0.00 | 0.00 | 35 | 1008.6 |
| 20260503190604 | 55 | 16 | 4.0 | 16.0 | 0.00 | 0.00 | 0.00 | 36 | 1008.5 |
| 20260503190504 | 55 | 19 | 4.0 | 16.0 | 0.00 | 0.00 | 0.00 | 37 | 1008.5 |
| 20260503190404 | 55 | 20 | 4.0 | 16.0 | 0.00 | 0.00 | 0.00 | 36 | 1008.6 |
| 20260503190304 | 55 | 20 | 4.0 | 16.0 | 0.00 | 0.00 | 0.00 | 36 | 1008.6 |
| 20260503190204 | 55 | 20 | 5.0 | 16.0 | 0.00 | 0.00 | 0.00 | 36 | 1008.6 |
| 20260503190104 | 55 | 21 | 5.0 | 16.0 | 0.00 | 0.00 | 0.00 | 36 | 1008.6 |
| 20260503190004 | 55 | 20 | 6.0 | 16.0 | 0.00 | 0.00 | 0.00 | 36 | 1008.6 |
| 20260503185904 | 55 | 19 | 6.0 | 26.0 | 0.00 | 0.00 | 0.00 | 36 | 1008.6 |
| 20260503185804 | 55 | 20 | 5.0 | 26.0 | 0.00 | 0.00 | 0.00 | 36 | 1008.6 |
| 20260503185704 | 55 | 20 | 5.0 | 26.0 | 0.00 | 0.00 | 0.00 | 36 | 1008.7 |
| 20260503185604 | 55 | 20 | 4.0 | 26.0 | 0.00 | 0.00 | 0.00 | 36 | 1008.6 |
| 20260503185504 | 55 | 20 | 5.0 | 26.0 | 0.00 | 0.00 | 0.00 | 35 | 1008.6 |
| 20260503185404 | 55 | 20 | 5.0 | 26.0 | 0.00 | 0.00 | 0.00 | 36 | 1008.7 |
| 20260503185305 | 55 | 21 | 4.0 | 26.0 | 0.00 | 0.00 | 0.00 | 37 | 1008.7 |
| 20260503185225 | 55 | 21 | 4.0 | 26.0 | 0.00 | 0.00 | 0.00 | 37 | 1008.6 |
| 20260503185125 | 55 | 19 | 4.0 | 26.0 | 0.00 | 0.00 | 0.00 | 36 | 1008.6 |
| 20260503185025 | 55 | 20 | 3.0 | 26.0 | 0.00 | 0.00 | 0.00 | 35 | 1008.7 |
| 20260503184925 | 55 | 24 | 2.0 | 14.0 | 0.00 | 0.00 | 0.00 | 35 | 1008.8 |
| 20260503184804 | 55 | 26 | 2.0 | 14.0 | 0.00 | 0.00 | 0.00 | 36 | 1008.8 |
| 20260503184704 | 55 | 24 | 3.0 | 14.0 | 0.00 | 0.00 | 0.00 | 36 | 1008.8 |
| 20260503184604 | 55 | 18 | 4.0 | 20.0 | 0.00 | 0.00 | 0.00 | 37 | 1008.8 |
| 20260503184504 | 55 | 14 | 4.0 | 22.0 | 0.00 | 0.00 | 0.00 | 37 | 1008.8 |
| 20260503184404 | 54 | 15 | 4.0 | 22.0 | 0.00 | 0.00 | 0.00 | 36 | 1008.8 |
| 20260503184304 | 54 | 15 | 5.0 | 22.0 | 0.00 | 0.00 | 0.00 | 36 | 1008.9 |
| 20260503184204 | 54 | 13 | 5.0 | 22.0 | 0.00 | 0.00 | 0.00 | 36 | 1008.9 |
| 20260503184104 | 54 | 14 | 5.0 | 22.0 | 0.00 | 0.00 | 0.00 | 37 | 1008.8 |
| 20260503184004 | 54 | 13 | 5.0 | 22.0 | 0.00 | 0.00 | 0.00 | 36 | 1008.8 |
| 20260503183904 | 54 | 14 | 5.0 | 22.0 | 0.00 | 0.00 | 0.00 | 36 | 1008.9 |
| 20260503183804 | 54 | 14 | 5.0 | 22.0 | 0.00 | 0.00 | 0.00 | 36 | 1009.1 |
| 20260503183704 | 54 | 14 | 5.0 | 22.0 | 0.00 | 0.00 | 0.00 | 36 | 1009.1 |
| 20260503183604 | 54 | 17 | 4.0 | 22.0 | 0.00 | 0.00 | 0.00 | 36 | 1009.0 |
| 20260503183504 | 54 | 20 | 3.0 | 14.0 | 0.00 | 0.00 | 0.00 | 36 | 1009.0 |
| 20260503183404 | 54 | 19 | 3.0 | 14.0 | 0.00 | 0.00 | 0.00 | 36 | 1009.0 |
| 20260503183304 | 54 | 21 | 2.0 | 14.0 | 0.00 | 0.00 | 0.00 | 36 | 1008.9 |
| 20260503183204 | 55 | 25 | 2.0 | 13.0 | 0.00 | 0.00 | 0.00 | 37 | 1008.9 |
| 20260503183104 | 55 | 20 | 2.0 | 14.0 | 0.00 | 0.00 | 0.00 | 37 | 1008.9 |
| 20260503183004 | 55 | 20 | 2.0 | 14.0 | 0.00 | 0.00 | 0.00 | 37 | 1008.9 |
| 20260503182904 | 54 | 20 | 2.0 | 14.0 | 0.00 | 0.00 | 0.00 | 37 | 1008.9 |
| 20260503182804 | 54 | 21 | 2.0 | 19.0 | 0.00 | 0.00 | 0.00 | 37 | 1008.9 |
| 20260503182725 | 54 | 18 | 3.0 | 19.0 | 0.00 | 0.00 | 0.00 | 38 | 1008.9 |
| 20260503182625 | 54 | 18 | 3.0 | 19.0 | 0.00 | 0.00 | 0.00 | 37 | 1008.9 |
| 20260503182525 | 54 | 17 | 4.0 | 19.0 | 0.00 | 0.00 | 0.00 | 38 | 1008.9 |
| 20260503182425 | 54 | 16 | 4.0 | 19.0 | 0.00 | 0.00 | 0.00 | 38 | 1009.0 |
| 20260503182325 | 54 | 16 | 0.0 | 19.0 | 0.00 | 0.00 | 0.00 | 39 | 1009.1 |
| 20260503182204 | 54 | 16 | 0.0 | 19.0 | 0.00 | 0.00 | 0.00 | 38 | 1009.1 |
| 20260503182104 | 54 | 17 | 0.0 | 19.0 | 0.00 | 0.00 | 0.00 | 37 | 1009.1 |
| 20260503182005 | 54 | 17 | 0.0 | 19.0 | 0.00 | 0.00 | 0.00 | 37 | 1009.1 |
| 20260503181904 | 54 | 16 | 0.0 | 19.0 | 0.00 | 0.00 | 0.00 | 37 | 1009.1 |
| 20260503181804 | 54 | 6 | 0.0 | 12.0 | 0.00 | 0.00 | 0.00 | 38 | 1009.0 |
| 20260503181725 | 56 | 0 | 0.0 | 8.0 | 0.00 | 0.00 | 0.00 | 38 | 1009.0 |
| 20260503181625 | 56 | 0 | 0.0 | 8.0 | 0.00 | 0.00 | 0.00 | 38 | 1009.0 |
| 20260503181525 | 56 | 0 | 0.0 | 8.0 | 0.00 | 0.00 | 0.00 | 38 | 1009.0 |
| 20260503181425 | 56 | 0 | 0.0 | 8.0 | 0.00 | 0.00 | 0.00 | 38 | 1009.0 |
| 20260503181304 | 56 | 0 | 0.0 | 8.0 | 0.00 | 0.00 | 0.00 | 38 | 1009.0 |
| 20260503181204 | 56 | 0 | 0.0 | 8.0 | 0.00 | 0.00 | 0.00 | 38 | 1009.0 |
| 20260503181104 | 56 | 0 | 0.0 | 8.0 | 0.00 | 0.00 | 0.00 | 38 | 1009.0 |
| 20260503181004 | 56 | 0 | 0.0 | 8.0 | 0.00 | 0.00 | 0.00 | 38 | 1009.1 |
| 20260503180904 | 56 | 0 | 0.0 | 8.0 | 0.00 | 0.00 | 0.00 | 38 | 1009.1 |
| 20260503180804 | 56 | 0 | 0.0 | 8.0 | 0.00 | 0.00 | 0.00 | 38 | 1009.1 |
| 20260503180704 | 56 | 0 | 0.0 | 8.0 | 0.00 | 0.00 | 0.00 | 38 | 1009.1 |
| 20260503180604 | 56 | 0 | 0.0 | 8.0 | 0.00 | 0.00 | 0.00 | 38 | 1009.2 |
| 20260503180504 | 56 | 0 | 0.0 | 8.0 | 0.00 | 0.00 | 0.00 | 38 | 1009.2 |
| 20260503180404 | 56 | 0 | 0.0 | 8.0 | 0.00 | 0.00 | 0.00 | 38 | 1009.3 |
| 20260503180304 | 56 | 0 | 0.0 | 8.0 | 0.00 | 0.00 | 0.00 | 38 | 1009.3 |
| 20260503180204 | 56 | 0 | 0.0 | 8.0 | 0.00 | 0.00 | 0.00 | 38 | 1009.0 |
| 20260503180104 | 56 | 0 | 0.0 | 8.0 | 0.00 | 0.00 | 0.00 | 38 | 1009.1 |
| 20260503180004 | 56 | 0 | 0.0 | 8.0 | 0.00 | 0.00 | 0.00 | 38 | 1009.1 |
| 20260503175904 | 56 | 0 | 0.0 | 8.0 | 0.00 | 0.00 | 0.00 | 38 | 1009.1 |
| 20260503175825 | 56 | 0 | 0.0 | 8.0 | 0.00 | 0.00 | 0.00 | 38 | 1009.1 |
| 20260503175704 | 56 | 0 | 0.0 | 8.0 | 0.00 | 0.00 | 0.00 | 38 | 1009.1 |
| 20260503175604 | 56 | 0 | 0.0 | 8.0 | 0.00 | 0.00 | 0.00 | 38 | 1009.1 |
| 20260503175504 | 56 | 0 | 0.0 | 8.0 | 0.00 | 0.00 | 0.00 | 38 | 1009.2 |
| 20260503175404 | 56 | 0 | 0.0 | 8.0 | 0.00 | 0.00 | 0.00 | 38 | 1009.2 |
| 20260503175305 | 56 | 0 | 0.0 | 8.0 | 0.00 | 0.00 | 0.00 | 38 | 1009.3 |
| 20260503175204 | 56 | 0 | 0.0 | 8.0 | 0.00 | 0.00 | 0.00 | 38 | 1009.3 |
| 20260503175104 | 56 | 0 | 0.0 | 8.0 | 0.00 | 0.00 | 0.00 | 38 | 1009.1 |
| 20260503175004 | 56 | 0 | 0.0 | 8.0 | 0.00 | 0.00 | 0.00 | 38 | 1009.2 |
| 20260503174904 | 56 | 0 | 0.0 | 8.0 | 0.00 | 0.00 | 0.00 | 38 | 1009.2 |
| 20260503174804 | 56 | 0 | 0.0 | 8.0 | 0.00 | 0.00 | 0.00 | 38 | 1009.2 |
| 20260503174704 | 56 | 0 | 0.0 | 8.0 | 0.00 | 0.00 | 0.00 | 38 | 1009.2 |
| 20260503174604 | 56 | 0 | 0.0 | 8.0 | 0.00 | 0.00 | 0.00 | 38 | 1009.1 |
| 20260503174504 | 56 | 0 | 0.0 | 8.0 | 0.00 | 0.00 | 0.00 | 38 | 1009.2 |
| 20260503174403 | 56 | 0 | 0.0 | 8.0 | 0.00 | 0.01 | 0.00 | 38 | 1009.2 |
| 20260503174303 | 56 | 0 | 0.0 | 8.0 | 0.00 | 0.01 | 0.00 | 38 | 1009.2 |
| 20260503174204 | 56 | 0 | 0.0 | 8.0 | 0.00 | 0.01 | 0.00 | 38 | 1009.3 |
| 20260503174104 | 56 | 0 | 0.0 | 8.0 | 0.00 | 0.01 | 0.00 | 38 | 1009.3 |
| 20260503174004 | 56 | 0 | 0.0 | 8.0 | 0.00 | 0.01 | 0.00 | 38 | 1009.3 |
| 20260503173904 | 56 | 0 | 0.0 | 8.0 | 0.00 | 0.01 | 0.00 | 38 | 1009.3 |
| 20260503173804 | 56 | 0 | 0.0 | 8.0 | 0.00 | 0.01 | 0.00 | 38 | 1009.3 |
| 20260503173704 | 56 | 0 | 0.0 | 8.0 | 0.00 | 0.01 | 0.00 | 38 | 1009.2 |
| 20260503173604 | 56 | 0 | 0.0 | 8.0 | 0.00 | 0.01 | 0.00 | 38 | 1009.2 |
| 20260503173504 | 56 | 0 | 0.0 | 8.0 | 0.00 | 0.01 | 0.00 | 38 | 1009.3 |
| 20260503173404 | 56 | 0 | 0.0 | 8.0 | 0.00 | 0.01 | 0.00 | 38 | 1009.3 |
| 20260503173304 | 56 | 0 | 0.0 | 8.0 | 0.00 | 0.01 | 0.00 | 38 | 1009.3 |
| 20260503173204 | 56 | 0 | 0.0 | 8.0 | 0.00 | 0.01 | 0.00 | 38 | 1009.3 |
| 20260503173104 | 56 | 0 | 0.0 | 8.0 | 0.00 | 0.01 | 0.00 | 38 | 1009.3 |
| 20260503173004 | 56 | 0 | 0.0 | 8.0 | 0.00 | 0.01 | 0.00 | 38 | 1009.3 |
| 20260503172904 | 56 | 0 | 0.0 | 8.0 | 0.00 | 0.01 | 0.00 | 38 | 1009.3 |
| 20260503172804 | 56 | 0 | 0.0 | 8.0 | 0.00 | 0.01 | 0.00 | 38 | 1009.4 |
| 20260503172705 | 56 | 0 | 0.0 | 8.0 | 0.00 | 0.01 | 0.00 | 38 | 1009.4 |
| 20260503172604 | 56 | 0 | 0.0 | 8.0 | 0.00 | 0.01 | 0.00 | 38 | 1009.4 |
| 20260503172504 | 56 | 0 | 0.0 | 8.0 | 0.00 | 0.01 | 0.00 | 38 | 1009.5 |
| 20260503172404 | 56 | 0 | 0.0 | 8.0 | 0.00 | 0.01 | 0.00 | 38 | 1009.5 |
| 20260503172305 | 56 | 0 | 0.0 | 8.0 | 0.00 | 0.01 | 0.00 | 38 | 1009.5 |
| 20260503172204 | 56 | 0 | 0.0 | 8.0 | 0.00 | 0.01 | 0.00 | 38 | 1009.4 |
| 20260503172104 | 56 | 0 | 0.0 | 8.0 | 0.00 | 0.01 | 0.00 | 38 | 1009.4 |
| 20260503172004 | 56 | 0 | 0.0 | 8.0 | 0.00 | 0.01 | 0.00 | 38 | 1009.3 |
| 20260503171904 | 56 | 0 | 0.0 | 8.0 | 0.00 | 0.01 | 0.00 | 38 | 1009.3 |
| 20260503171804 | 56 | 0 | 0.0 | 8.0 | 0.00 | 0.01 | 0.00 | 38 | 1009.3 |
| 20260503171704 | 56 | 0 | 0.0 | 8.0 | 0.00 | 0.01 | 0.00 | 38 | 1009.4 |
| 20260503171604 | 56 | 0 | 0.0 | 8.0 | 0.00 | 0.01 | 0.00 | 38 | 1009.4 |
| 20260503171504 | 56 | 0 | 0.0 | 8.0 | 0.00 | 0.01 | 0.00 | 38 | 1009.4 |
| 20260503171404 | 56 | 0 | 0.0 | 8.0 | 0.00 | 0.01 | 0.00 | 38 | 1009.4 |
| 20260503171304 | 56 | 0 | 0.0 | 8.0 | 0.00 | 0.01 | 0.00 | 38 | 1009.4 |
| 20260503171204 | 56 | 0 | 0.0 | 8.0 | 0.00 | 0.01 | 0.00 | 38 | 1009.4 |
| 20260503171104 | 56 | 0 | 0.0 | 8.0 | 0.00 | 0.01 | 0.00 | 38 | 1009.4 |
| 20260503171004 | 56 | 0 | 0.0 | 8.0 | 0.00 | 0.01 | 0.00 | 38 | 1009.5 |
| 20260503170904 | 56 | 0 | 0.0 | 8.0 | 0.00 | 0.01 | 0.00 | 38 | 1009.6 |
| 20260503170804 | 56 | 0 | 0.0 | 8.0 | 0.00 | 0.01 | 0.00 | 38 | 1009.6 |
| 20260503170704 | 56 | 0 | 0.0 | 8.0 | 0.00 | 0.01 | 0.00 | 38 | 1009.5 |
| 20260503170604 | 56 | 0 | 0.0 | 8.0 | 0.00 | 0.01 | 0.00 | 38 | 1009.5 |
| 20260503170504 | 56 | 0 | 0.0 | 8.0 | 0.00 | 0.01 | 0.00 | 38 | 1009.5 |
| 20260503170425 | 56 | 0 | 0.0 | 8.0 | 0.00 | 0.01 | 0.00 | 38 | 1009.5 |
| 20260503170325 | 56 | 0 | 0.0 | 8.0 | 0.00 | 0.01 | 0.00 | 38 | 1009.5 |
| 20260503170225 | 56 | 0 | 0.0 | 8.0 | 0.00 | 0.01 | 0.00 | 38 | 1009.5 |
| 20260503170125 | 56 | 0 | 0.0 | 8.0 | 0.00 | 0.01 | 0.00 | 38 | 1009.5 |
| 20260503160204 | 56 | 0 | 0.0 | 8.0 | 0.00 | 0.01 | 0.00 | 38 | 1009.5 |
| 20260503160104 | 56 | 0 | 0.0 | 8.0 | 0.00 | 0.01 | 0.00 | 38 | 1009.5 |
| 20260503151004 | 56 | 0 | 0.0 | 8.0 | 0.00 | 0.01 | 0.00 | 38 | 1009.9 |
| 20260503150904 | 56 | 0 | 0.0 | 8.0 | 0.00 | 0.01 | 0.00 | 38 | 1009.9 |
| 20260503150804 | 56 | 0 | 0.0 | 8.0 | 0.00 | 0.01 | 0.00 | 38 | 1009.9 |
| 20260503150704 | 56 | 0 | 0.0 | 8.0 | 0.00 | 0.01 | 0.00 | 38 | 1009.8 |
| 20260503150604 | 56 | 0 | 0.0 | 8.0 | 0.00 | 0.01 | 0.00 | 38 | 1009.7 |
| 20260503150504 | 56 | 0 | 0.0 | 8.0 | 0.00 | 0.01 | 0.00 | 38 | 1009.7 |
| 20260503150404 | 56 | 0 | 0.0 | 8.0 | 0.00 | 0.01 | 0.00 | 38 | 1009.7 |
| 20260503150304 | 56 | 0 | 0.0 | 8.0 | 0.00 | 0.01 | 0.00 | 38 | 1009.7 |
| 20260503150204 | 56 | 0 | 0.0 | 8.0 | 0.00 | 0.01 | 0.00 | 38 | 1009.7 |
| 20260503150104 | 56 | 0 | 0.0 | 8.0 | 0.00 | 0.01 | 0.00 | 38 | 1009.7 |
| 20260503140304 | 56 | 0 | 0.0 | 8.0 | 0.00 | 0.01 | 0.00 | 38 | 1009.7 |
| 20260503140204 | 56 | 0 | 0.0 | 8.0 | 0.00 | 0.01 | 0.00 | 38 | 1009.8 |
| 20260503140104 | 56 | 0 | 0.0 | 8.0 | 0.00 | 0.01 | 0.00 | 38 | 1009.8 |
| 20260503131304 | 56 | 0 | 0.0 | 8.0 | 0.00 | 0.01 | 0.00 | 38 | 1010.0 |
| 20260503131204 | 56 | 0 | 0.0 | 8.0 | 0.00 | 0.01 | 0.00 | 38 | 1010.1 |
| 20260503131104 | 56 | 0 | 0.0 | 8.0 | 0.00 | 0.01 | 0.00 | 38 | 1010.1 |
| 20260503131004 | 56 | 0 | 0.0 | 8.0 | 0.00 | 0.01 | 0.00 | 38 | 1010.0 |
| 20260503130904 | 56 | 0 | 0.0 | 8.0 | 0.00 | 0.01 | 0.00 | 38 | 1010.0 |
| 20260503130804 | 56 | 0 | 0.0 | 8.0 | 0.00 | 0.01 | 0.00 | 38 | 1010.0 |
| 20260503130704 | 56 | 0 | 0.0 | 8.0 | 0.00 | 0.01 | 0.00 | 38 | 1010.0 |
| 20260503130604 | 56 | 0 | 0.0 | 8.0 | 0.00 | 0.01 | 0.00 | 38 | 1010.0 |
| 20260503130504 | 56 | 0 | 0.0 | 8.0 | 0.00 | 0.01 | 0.00 | 38 | 1010.0 |
| 20260503130404 | 56 | 0 | 0.0 | 8.0 | 0.00 | 0.01 | 0.00 | 38 | 1010.0 |
| 20260503130304 | 56 | 0 | 0.0 | 8.0 | 0.00 | 0.01 | 0.00 | 38 | 1010.0 |
| 20260503130204 | 56 | 0 | 0.0 | 8.0 | 0.00 | 0.01 | 0.00 | 38 | 1010.1 |
| 20260503130104 | 56 | 0 | 0.0 | 8.0 | 0.00 | 0.01 | 0.00 | 38 | 1010.0 |
| 20260503120204 | 56 | 0 | 0.0 | 8.0 | 0.00 | 0.01 | 0.00 | 38 | 1009.9 |
| 20260503120104 | 56 | 0 | 0.0 | 8.0 | 0.00 | 0.01 | 0.00 | 38 | 1009.9 |
| 20260503110804 | 56 | 0 | 0.0 | 8.0 | 0.00 | 0.01 | 0.00 | 38 | 1009.6 |
| 20260503110704 | 56 | 0 | 0.0 | 8.0 | 0.00 | 0.01 | 0.00 | 38 | 1009.6 |
| 20260503110604 | 56 | 0 | 0.0 | 8.0 | 0.00 | 0.01 | 0.00 | 38 | 1009.6 |
| 20260503110504 | 56 | 0 | 0.0 | 8.0 | 0.00 | 0.01 | 0.00 | 38 | 1009.6 |
| 20260503110404 | 56 | 0 | 0.0 | 8.0 | 0.00 | 0.01 | 0.00 | 38 | 1009.6 |
| 20260503110304 | 56 | 0 | 0.0 | 8.0 | 0.00 | 0.01 | 0.00 | 38 | 1009.6 |
| 20260503110204 | 56 | 0 | 0.0 | 8.0 | 0.00 | 0.01 | 0.00 | 38 | 1009.6 |
| 20260503110104 | 56 | 0 | 0.0 | 8.0 | 0.00 | 0.01 | 0.00 | 38 | 1009.5 |
| 20260503100204 | 56 | 0 | 0.0 | 8.0 | 0.00 | 0.01 | 0.00 | 38 | 1008.9 |
| 20260503100104 | 56 | 0 | 0.0 | 8.0 | 0.00 | 0.01 | 0.00 | 38 | 1008.9 |
| 20260503090425 | 56 | 0 | 0.0 | 8.0 | 0.00 | 0.01 | 0.00 | 38 | 1008.7 |
| 20260503090325 | 56 | 0 | 0.0 | 8.0 | 0.00 | 0.01 | 0.00 | 38 | 1008.7 |
| 20260503090225 | 56 | 0 | 0.0 | 8.0 | 0.00 | 0.01 | 0.00 | 38 | 1008.7 |
| 20260503090125 | 56 | 0 | 0.0 | 8.0 | 0.00 | 0.01 | 0.00 | 38 | 1008.7 |
| 20260503081603 | 56 | 0 | 0.0 | 8.0 | 0.00 | 0.01 | 0.00 | 38 | 1008.9 |
| 20260503081504 | 56 | 0 | 0.0 | 8.0 | 0.00 | 0.01 | 0.00 | 38 | 1009.0 |
| 20260503081413 | 56 | 0 | 0.0 | 8.0 | 0.00 | 0.01 | 0.00 | 38 | 1009.0 |
| 20260503081303 | 56 | 0 | 0.0 | 8.0 | 0.00 | 0.01 | 0.00 | 38 | 1009.0 |
| 20260503081203 | 56 | 0 | 0.0 | 8.0 | 0.00 | 0.01 | 0.00 | 38 | 1009.0 |
| 20260503081103 | 56 | 0 | 0.0 | 8.0 | 0.00 | 0.01 | 0.00 | 38 | 1009.0 |
| 20260503081003 | 56 | 0 | 0.0 | 8.0 | 0.00 | 0.01 | 0.00 | 38 | 1009.0 |
| 20260503080903 | 56 | 0 | 0.0 | 8.0 | 0.00 | 0.01 | 0.00 | 38 | 1009.0 |
| 20260503080803 | 56 | 0 | 0.0 | 8.0 | 0.00 | 0.01 | 0.00 | 38 | 1009.0 |
| 20260503080703 | 56 | 0 | 0.0 | 8.0 | 0.00 | 0.01 | 0.00 | 38 | 1009.0 |
| 20260503080604 | 56 | 0 | 0.0 | 8.0 | 0.00 | 0.01 | 0.00 | 38 | 1009.0 |
| 20260503080504 | 56 | 0 | 0.0 | 8.0 | 0.00 | 0.01 | 0.00 | 38 | 1009.0 |
| 20260503080404 | 56 | 0 | 0.0 | 8.0 | 0.00 | 0.01 | 0.00 | 38 | 1009.0 |
| 20260503080304 | 56 | 0 | 0.0 | 8.0 | 0.00 | 0.01 | 0.00 | 38 | 1009.0 |
| 20260503080204 | 56 | 0 | 0.0 | 8.0 | 0.00 | 0.01 | 0.00 | 38 | 1009.0 |
| 20260503080104 | 56 | 0 | 0.0 | 8.0 | 0.00 | 0.01 | 0.00 | 38 | 1009.0 |
| 20260503072904 | 56 | 0 | 0.0 | 8.0 | 0.00 | 0.01 | 0.00 | 38 | 1008.9 |
| 20260503072804 | 56 | 0 | 0.0 | 8.0 | 0.00 | 0.01 | 0.00 | 38 | 1009.0 |
| 20260503072725 | 56 | 0 | 0.0 | 8.0 | 0.00 | 0.01 | 0.00 | 38 | 1009.0 |
| 20260503072604 | 56 | 0 | 0.0 | 8.0 | 0.00 | 0.01 | 0.00 | 38 | 1008.9 |
| 20260503072504 | 56 | 0 | 0.0 | 8.0 | 0.00 | 0.01 | 0.00 | 38 | 1008.9 |
| 20260503072403 | 56 | 0 | 0.0 | 8.0 | 0.00 | 0.01 | 0.00 | 38 | 1008.9 |
| 20260503072305 | 56 | 0 | 0.0 | 8.0 | 0.00 | 0.01 | 0.00 | 38 | 1008.9 |
| 20260503072203 | 56 | 0 | 0.0 | 8.0 | 0.00 | 0.01 | 0.00 | 38 | 1008.9 |
| 20260503072103 | 56 | 0 | 0.0 | 8.0 | 0.00 | 0.01 | 0.00 | 38 | 1008.9 |
| 20260503072003 | 56 | 0 | 0.0 | 8.0 | 0.00 | 0.01 | 0.00 | 38 | 1008.9 |
| 20260503071903 | 56 | 0 | 0.0 | 8.0 | 0.00 | 0.01 | 0.00 | 38 | 1008.9 |
| 20260503071803 | 56 | 0 | 0.0 | 8.0 | 0.00 | 0.01 | 0.00 | 38 | 1008.9 |
| 20260503071703 | 56 | 0 | 0.0 | 8.0 | 0.00 | 0.01 | 0.00 | 38 | 1009.0 |
| 20260503071603 | 56 | 0 | 0.0 | 8.0 | 0.00 | 0.01 | 0.00 | 38 | 1009.0 |
| 20260503071504 | 56 | 0 | 0.0 | 8.0 | 0.00 | 0.01 | 0.00 | 38 | 1009.0 |
| 20260503071404 | 56 | 0 | 0.0 | 8.0 | 0.00 | 0.01 | 0.00 | 38 | 1008.9 |
| 20260503071304 | 56 | 0 | 0.0 | 8.0 | 0.00 | 0.01 | 0.00 | 38 | 1008.9 |
| 20260503071204 | 56 | 0 | 0.0 | 8.0 | 0.00 | 0.01 | 0.00 | 38 | 1009.0 |
| 20260503071104 | 56 | 0 | 0.0 | 8.0 | 0.00 | 0.01 | 0.00 | 38 | 1009.0 |
| 20260503071004 | 56 | 0 | 0.0 | 8.0 | 0.00 | 0.01 | 0.00 | 38 | 1009.0 |
| 20260503070904 | 56 | 0 | 0.0 | 8.0 | 0.00 | 0.01 | 0.00 | 38 | 1009.1 |
| 20260503070804 | 56 | 0 | 0.0 | 8.0 | 0.00 | 0.01 | 0.00 | 38 | 1009.1 |
| 20260503070704 | 56 | 0 | 0.0 | 8.0 | 0.00 | 0.01 | 0.00 | 38 | 1009.0 |
| 20260503070604 | 56 | 0 | 0.0 | 8.0 | 0.00 | 0.01 | 0.00 | 38 | 1009.1 |
| 20260503070525 | 56 | 0 | 0.0 | 8.0 | 0.00 | 0.01 | 0.00 | 38 | 1009.1 |
| 20260503070425 | 56 | 0 | 0.0 | 8.0 | 0.00 | 0.01 | 0.00 | 38 | 1009.1 |
| 20260503070325 | 56 | 0 | 0.0 | 8.0 | 0.00 | 0.01 | 0.00 | 38 | 1009.1 |
| 20260503070225 | 56 | 0 | 0.0 | 8.0 | 0.00 | 0.01 | 0.00 | 38 | 1009.0 |
| 20260503070125 | 56 | 0 | 0.0 | 8.0 | 0.00 | 0.01 | 0.00 | 38 | 1009.0 |
| 20260503060304 | 56 | 0 | 0.0 | 8.0 | 0.00 | 0.01 | 0.00 | 38 | 1009.2 |
| 20260503060204 | 56 | 0 | 0.0 | 8.0 | 0.00 | 0.01 | 0.00 | 38 | 1009.3 |
| 20260503060104 | 56 | 0 | 0.0 | 8.0 | 0.00 | 0.01 | 0.00 | 38 | 1009.3 |
| 20260503055103 | 56 | 0 | 0.0 | 8.0 | 0.00 | 0.01 | 0.00 | 38 | 1009.4 |
| 20260503055003 | 56 | 0 | 0.0 | 8.0 | 0.00 | 0.01 | 0.00 | 38 | 1009.4 |
| 20260503054904 | 56 | 0 | 0.0 | 8.0 | 0.00 | 0.01 | 0.00 | 38 | 1009.4 |
| 20260503054804 | 56 | 0 | 0.0 | 8.0 | 0.00 | 0.01 | 0.00 | 38 | 1009.4 |
| 20260503054704 | 56 | 0 | 0.0 | 8.0 | 0.00 | 0.01 | 0.00 | 38 | 1009.4 |
| 20260503054604 | 56 | 0 | 0.0 | 8.0 | 0.00 | 0.01 | 0.00 | 38 | 1009.4 |
| 20260503054504 | 56 | 0 | 0.0 | 8.0 | 0.00 | 0.01 | 0.00 | 38 | 1009.4 |
| 20260503054403 | 56 | 0 | 0.0 | 8.0 | 0.00 | 0.01 | 0.00 | 38 | 1009.4 |
| 20260503054303 | 56 | 0 | 0.0 | 8.0 | 0.00 | 0.01 | 0.00 | 38 | 1009.4 |
| 20260503054203 | 56 | 0 | 0.0 | 8.0 | 0.00 | 0.01 | 0.00 | 38 | 1009.4 |
| 20260503054103 | 56 | 0 | 0.0 | 8.0 | 0.00 | 0.01 | 0.00 | 38 | 1009.4 |
| 20260503054004 | 56 | 0 | 0.0 | 8.0 | 0.00 | 0.01 | 0.00 | 38 | 1009.4 |
| 20260503053903 | 56 | 0 | 0.0 | 8.0 | 0.00 | 0.01 | 0.00 | 38 | 1009.4 |
| 20260503053803 | 56 | 0 | 0.0 | 8.0 | 0.00 | 0.01 | 0.00 | 38 | 1009.4 |
| 20260503053703 | 56 | 0 | 0.0 | 8.0 | 0.00 | 0.01 | 0.00 | 38 | 1009.4 |
| 20260503053603 | 56 | 0 | 0.0 | 8.0 | 0.00 | 0.01 | 0.00 | 38 | 1009.4 |
| 20260503053504 | 56 | 0 | 0.0 | 8.0 | 0.00 | 0.01 | 0.00 | 38 | 1009.5 |
| 20260503053424 | 56 | 0 | 0.0 | 8.0 | 0.00 | 0.01 | 0.00 | 38 | 1009.5 |
| 20260503053324 | 56 | 0 | 0.0 | 8.0 | 0.00 | 0.01 | 0.00 | 38 | 1009.4 |
| 20260503053224 | 56 | 0 | 0.0 | 8.0 | 0.00 | 0.01 | 0.00 | 38 | 1009.4 |
| 20260503053124 | 56 | 0 | 0.0 | 8.0 | 0.00 | 0.01 | 0.00 | 38 | 1009.5 |
| 20260503053024 | 56 | 0 | 0.0 | 8.0 | 0.00 | 0.01 | 0.00 | 38 | 1009.5 |
| 20260503052903 | 56 | 0 | 0.0 | 8.0 | 0.00 | 0.01 | 0.00 | 38 | 1009.5 |
| 20260503052803 | 56 | 0 | 0.0 | 8.0 | 0.00 | 0.01 | 0.00 | 38 | 1009.5 |
| 20260503052703 | 56 | 0 | 0.0 | 8.0 | 0.00 | 0.01 | 0.00 | 38 | 1009.5 |
| 20260503052603 | 56 | 0 | 0.0 | 8.0 | 0.00 | 0.01 | 0.00 | 38 | 1009.5 |
| 20260503052503 | 56 | 0 | 0.0 | 8.0 | 0.00 | 0.01 | 0.00 | 38 | 1009.5 |
| 20260503052403 | 56 | 0 | 0.0 | 8.0 | 0.00 | 0.01 | 0.00 | 38 | 1009.6 |
| 20260503052305 | 56 | 0 | 0.0 | 8.0 | 0.00 | 0.01 | 0.00 | 38 | 1009.6 |
| 20260503052203 | 56 | 0 | 0.0 | 8.0 | 0.00 | 0.01 | 0.00 | 38 | 1009.6 |
| 20260503052103 | 56 | 0 | 0.0 | 8.0 | 0.00 | 0.01 | 0.00 | 38 | 1009.6 |
| 20260503052003 | 56 | 0 | 0.0 | 8.0 | 0.00 | 0.01 | 0.00 | 38 | 1009.6 |
| 20260503051903 | 56 | 0 | 0.0 | 8.0 | 0.00 | 0.01 | 0.00 | 38 | 1009.6 |
| 20260503051804 | 56 | 0 | 0.0 | 8.0 | 0.00 | 0.01 | 0.00 | 38 | 1009.6 |
| 20260503051704 | 56 | 0 | 0.0 | 8.0 | 0.00 | 0.01 | 0.00 | 38 | 1009.6 |
| 20260503051604 | 56 | 0 | 0.0 | 8.0 | 0.00 | 0.01 | 0.00 | 38 | 1009.6 |
| 20260503051504 | 56 | 0 | 0.0 | 8.0 | 0.00 | 0.01 | 0.00 | 38 | 1009.7 |
| 20260503051404 | 56 | 0 | 0.0 | 8.0 | 0.00 | 0.01 | 0.00 | 38 | 1009.7 |
| 20260503051304 | 56 | 0 | 0.0 | 8.0 | 0.00 | 0.01 | 0.00 | 38 | 1009.7 |
| 20260503051204 | 56 | 0 | 0.0 | 8.0 | 0.00 | 0.01 | 0.00 | 38 | 1009.7 |
| 20260503051104 | 56 | 0 | 0.0 | 8.0 | 0.00 | 0.01 | 0.00 | 38 | 1009.7 |
| 20260503051004 | 56 | 0 | 0.0 | 8.0 | 0.00 | 0.01 | 0.00 | 38 | 1009.7 |
| 20260503050904 | 56 | 0 | 0.0 | 8.0 | 0.00 | 0.01 | 0.00 | 38 | 1009.7 |
| 20260503050804 | 56 | 0 | 0.0 | 8.0 | 0.00 | 0.01 | 0.00 | 38 | 1009.7 |
| 20260503050704 | 56 | 0 | 0.0 | 8.0 | 0.00 | 0.01 | 0.00 | 38 | 1009.7 |
| 20260503050604 | 56 | 0 | 0.0 | 8.0 | 0.00 | 0.01 | 0.00 | 38 | 1009.7 |
| 20260503050504 | 56 | 0 | 0.0 | 8.0 | 0.00 | 0.01 | 0.00 | 38 | 1009.7 |
| 20260503050404 | 56 | 0 | 0.0 | 8.0 | 0.00 | 0.01 | 0.00 | 38 | 1009.8 |
| 20260503050304 | 56 | 0 | 0.0 | 8.0 | 0.00 | 0.01 | 0.00 | 38 | 1009.8 |
| 20260503050204 | 56 | 0 | 0.0 | 8.0 | 0.00 | 0.01 | 0.00 | 38 | 1009.8 |
| 20260503050104 | 56 | 0 | 0.0 | 8.0 | 0.00 | 0.01 | 0.00 | 38 | 1009.8 |
| 20260503050004 | 56 | 0 | 0.0 | 8.0 | 0.00 | 0.01 | 0.00 | 38 | 1009.8 |
| 20260503045904 | 56 | 0 | 0.0 | 8.0 | 0.00 | 0.01 | 0.00 | 38 | 1009.8 |
| 20260503045804 | 56 | 0 | 0.0 | 8.0 | 0.00 | 0.01 | 0.00 | 38 | 1009.8 |
| 20260503045704 | 56 | 0 | 0.0 | 8.0 | 0.00 | 0.01 | 0.00 | 38 | 1009.9 |
| 20260503045604 | 56 | 0 | 0.0 | 8.0 | 0.00 | 0.01 | 0.00 | 38 | 1009.8 |
| 20260503045504 | 56 | 0 | 0.0 | 8.0 | 0.00 | 0.01 | 0.00 | 38 | 1009.9 |
| 20260503045404 | 56 | 0 | 0.0 | 8.0 | 0.00 | 0.01 | 0.00 | 38 | 1009.9 |
| 20260503045305 | 56 | 0 | 0.0 | 8.0 | 0.00 | 0.01 | 0.00 | 38 | 1009.9 |
| 20260503045204 | 56 | 0 | 0.0 | 8.0 | 0.00 | 0.01 | 0.00 | 38 | 1009.9 |
| 20260503045104 | 56 | 0 | 0.0 | 8.0 | 0.00 | 0.01 | 0.00 | 38 | 1009.9 |
| 20260503045004 | 56 | 0 | 0.0 | 8.0 | 0.00 | 0.01 | 0.00 | 38 | 1009.9 |
| 20260503044904 | 56 | 0 | 0.0 | 8.0 | 0.00 | 0.01 | 0.00 | 38 | 1009.9 |
| 20260503044804 | 56 | 0 | 0.0 | 8.0 | 0.00 | 0.01 | 0.00 | 38 | 1010.0 |
| 20260503044704 | 56 | 0 | 0.0 | 8.0 | 0.00 | 0.01 | 0.00 | 38 | 1010.0 |
| 20260503044604 | 56 | 0 | 0.0 | 8.0 | 0.00 | 0.01 | 0.00 | 38 | 1010.0 |
| 20260503044504 | 56 | 0 | 0.0 | 8.0 | 0.00 | 0.01 | 0.00 | 38 | 1010.0 |
| 20260503044404 | 56 | 0 | 0.0 | 8.0 | 0.00 | 0.01 | 0.00 | 38 | 1010.0 |
| 20260503044303 | 56 | 0 | 0.0 | 8.0 | 0.00 | 0.01 | 0.00 | 38 | 1010.0 |
| 20260503044204 | 56 | 0 | 0.0 | 8.0 | 0.00 | 0.01 | 0.00 | 38 | 1010.0 |
| 20260503044103 | 56 | 0 | 0.0 | 8.0 | 0.00 | 0.01 | 0.00 | 38 | 1010.0 |
| 20260503044004 | 56 | 0 | 0.0 | 8.0 | 0.00 | 0.01 | 0.00 | 38 | 1010.0 |
| 20260503043903 | 56 | 0 | 0.0 | 8.0 | 0.00 | 0.01 | 0.00 | 38 | 1010.0 |
| 20260503043825 | 56 | 0 | 0.0 | 8.0 | 0.00 | 0.01 | 0.00 | 38 | 1010.0 |
| 20260503043725 | 56 | 0 | 0.0 | 8.0 | 0.00 | 0.01 | 0.00 | 38 | 1010.0 |
| 20260503043625 | 56 | 0 | 0.0 | 8.0 | 0.00 | 0.01 | 0.00 | 38 | 1010.0 |
| 20260503043525 | 56 | 0 | 0.0 | 8.0 | 0.00 | 0.01 | 0.00 | 38 | 1010.0 |
| 20260503043404 | 56 | 0 | 0.0 | 8.0 | 0.00 | 0.01 | 0.00 | 38 | 1010.0 |
| 20260503043303 | 56 | 0 | 0.0 | 8.0 | 0.00 | 0.01 | 0.00 | 38 | 1009.9 |
| 20260503043203 | 56 | 0 | 0.0 | 8.0 | 0.00 | 0.01 | 0.00 | 38 | 1009.9 |
| 20260503043103 | 56 | 0 | 0.0 | 8.0 | 0.00 | 0.01 | 0.00 | 38 | 1009.9 |
| 20260503043004 | 56 | 0 | 0.0 | 8.0 | 0.00 | 0.01 | 0.00 | 38 | 1009.9 |
| 20260503042925 | 56 | 0 | 0.0 | 8.0 | 0.00 | 0.01 | 0.00 | 38 | 1009.9 |
| 20260503042804 | 56 | 0 | 0.0 | 8.0 | 0.00 | 0.01 | 0.00 | 38 | 1009.9 |
| 20260503042703 | 56 | 0 | 0.0 | 8.0 | 0.00 | 0.01 | 0.00 | 38 | 1010.0 |
| 20260503042603 | 56 | 0 | 0.0 | 8.0 | 0.00 | 0.01 | 0.00 | 38 | 1010.0 |
| 20260503042504 | 56 | 0 | 0.0 | 8.0 | 0.00 | 0.01 | 0.00 | 38 | 1010.0 |
| 20260503042403 | 56 | 0 | 0.0 | 8.0 | 0.00 | 0.01 | 0.00 | 38 | 1010.0 |
| 20260503042305 | 56 | 0 | 0.0 | 8.0 | 0.00 | 0.01 | 0.00 | 38 | 1010.0 |
| 20260503042203 | 56 | 0 | 0.0 | 8.0 | 0.00 | 0.01 | 0.00 | 38 | 1010.0 |
| 20260503042103 | 56 | 0 | 0.0 | 8.0 | 0.00 | 0.01 | 0.00 | 38 | 1010.0 |
| 20260503042003 | 56 | 0 | 0.0 | 8.0 | 0.00 | 0.01 | 0.00 | 38 | 1010.0 |
| 20260503041903 | 56 | 0 | 0.0 | 8.0 | 0.00 | 0.01 | 0.00 | 38 | 1010.1 |
| 20260503041803 | 56 | 0 | 0.0 | 8.0 | 0.00 | 0.01 | 0.00 | 38 | 1010.1 |
| 20260503041703 | 56 | 0 | 0.0 | 8.0 | 0.00 | 0.01 | 0.00 | 38 | 1010.1 |
| 20260503041603 | 56 | 0 | 0.0 | 8.0 | 0.00 | 0.01 | 0.00 | 38 | 1010.1 |
| 20260503041503 | 56 | 0 | 0.0 | 8.0 | 0.00 | 0.01 | 0.00 | 38 | 1010.0 |
| 20260503041403 | 56 | 0 | 0.0 | 8.0 | 0.00 | 0.01 | 0.00 | 38 | 1010.0 |
| 20260503041303 | 56 | 0 | 0.0 | 8.0 | 0.00 | 0.01 | 0.00 | 38 | 1010.0 |
| 20260503041203 | 56 | 0 | 0.0 | 8.0 | 0.00 | 0.01 | 0.00 | 38 | 1010.0 |
| 20260503041103 | 56 | 0 | 0.0 | 8.0 | 0.00 | 0.01 | 0.00 | 38 | 1010.0 |
| 20260503041003 | 56 | 0 | 0.0 | 8.0 | 0.00 | 0.01 | 0.00 | 38 | 1010.0 |
| 20260503040903 | 56 | 0 | 0.0 | 8.0 | 0.00 | 0.01 | 0.00 | 38 | 1010.0 |
| 20260503040824 | 56 | 0 | 0.0 | 8.0 | 0.00 | 0.01 | 0.00 | 38 | 1010.0 |
| 20260503040724 | 56 | 0 | 0.0 | 8.0 | 0.00 | 0.01 | 0.00 | 38 | 1010.0 |
| 20260503040624 | 56 | 0 | 0.0 | 8.0 | 0.00 | 0.01 | 0.00 | 38 | 1010.0 |
| 20260503040524 | 56 | 0 | 0.0 | 8.0 | 0.00 | 0.01 | 0.00 | 38 | 1010.0 |
| 20260503040403 | 56 | 0 | 0.0 | 8.0 | 0.00 | 0.01 | 0.00 | 38 | 1010.0 |
| 20260503040303 | 56 | 0 | 0.0 | 8.0 | 0.00 | 0.01 | 0.00 | 38 | 1010.0 |
| 20260503040203 | 56 | 0 | 0.0 | 8.0 | 0.00 | 0.01 | 0.00 | 38 | 1010.0 |
| 20260503040103 | 56 | 0 | 0.0 | 8.0 | 0.00 | 0.01 | 0.00 | 38 | 1010.1 |
| 20260503040004 | 56 | 0 | 0.0 | 8.0 | 0.00 | 0.01 | 0.00 | 38 | 1010.1 |
| 20260503035903 | 56 | 0 | 0.0 | 8.0 | 0.00 | 0.01 | 0.01 | 38 | 1010.1 |
| 20260503035804 | 56 | 0 | 0.0 | 8.0 | 0.00 | 0.01 | 0.01 | 38 | 1010.1 |
| 20260503035704 | 56 | 0 | 0.0 | 8.0 | 0.00 | 0.01 | 0.01 | 38 | 1010.1 |
| 20260503035604 | 56 | 0 | 0.0 | 8.0 | 0.00 | 0.01 | 0.01 | 38 | 1010.1 |
| 20260503035504 | 56 | 0 | 0.0 | 8.0 | 0.00 | 0.01 | 0.01 | 38 | 1010.0 |
| 20260503035404 | 56 | 0 | 0.0 | 8.0 | 0.00 | 0.01 | 0.01 | 38 | 1010.0 |
| 20260503035305 | 56 | 0 | 0.0 | 8.0 | 0.00 | 0.01 | 0.01 | 38 | 1010.1 |
| 20260503035204 | 56 | 0 | 0.0 | 8.0 | 0.00 | 0.01 | 0.01 | 38 | 1010.1 |
| 20260503035104 | 56 | 0 | 0.0 | 8.0 | 0.00 | 0.01 | 0.01 | 38 | 1010.0 |
| 20260503035004 | 56 | 0 | 0.0 | 8.0 | 0.00 | 0.01 | 0.01 | 38 | 1010.0 |
| 20260503034904 | 56 | 0 | 0.0 | 8.0 | 0.00 | 0.01 | 0.01 | 38 | 1010.0 |
| 20260503034804 | 56 | 0 | 0.0 | 8.0 | 0.00 | 0.01 | 0.01 | 38 | 1009.9 |
| 20260503034704 | 56 | 0 | 0.0 | 8.0 | 0.00 | 0.01 | 0.01 | 38 | 1009.9 |
| 20260503034604 | 56 | 0 | 0.0 | 8.0 | 0.00 | 0.01 | 0.01 | 38 | 1009.9 |
| 20260503034504 | 56 | 0 | 0.0 | 8.0 | 0.00 | 0.01 | 0.01 | 38 | 1009.9 |
| 20260503034404 | 56 | 0 | 0.0 | 8.0 | 0.00 | 0.01 | 0.01 | 38 | 1009.9 |
| 20260503034304 | 56 | 0 | 0.0 | 8.0 | 0.00 | 0.01 | 0.01 | 38 | 1010.0 |
| 20260503034204 | 56 | 0 | 0.0 | 8.0 | 0.00 | 0.01 | 0.01 | 38 | 1010.0 |
| 20260503034104 | 56 | 0 | 0.0 | 8.0 | 0.00 | 0.01 | 0.01 | 38 | 1010.0 |
| 20260503034004 | 56 | 0 | 0.0 | 8.0 | 0.00 | 0.01 | 0.01 | 38 | 1009.9 |
| 20260503033904 | 56 | 0 | 0.0 | 8.0 | 0.00 | 0.01 | 0.01 | 38 | 1009.9 |
| 20260503033804 | 56 | 0 | 0.0 | 8.0 | 0.00 | 0.01 | 0.01 | 38 | 1009.9 |
| 20260503033704 | 56 | 0 | 0.0 | 8.0 | 0.00 | 0.01 | 0.01 | 38 | 1010.0 |
| 20260503033604 | 56 | 0 | 0.0 | 8.0 | 0.00 | 0.01 | 0.01 | 38 | 1010.0 |
| 20260503033504 | 56 | 0 | 0.0 | 8.0 | 0.00 | 0.01 | 0.01 | 38 | 1010.0 |
| 20260503033404 | 56 | 0 | 0.0 | 8.0 | 0.00 | 0.01 | 0.01 | 38 | 1010.0 |
| 20260503033304 | 56 | 0 | 0.0 | 8.0 | 0.00 | 0.01 | 0.01 | 38 | 1009.9 |
| 20260503033204 | 56 | 0 | 0.0 | 8.0 | 0.00 | 0.01 | 0.01 | 38 | 1009.9 |
| 20260503033103 | 56 | 0 | 0.0 | 8.0 | 0.00 | 0.01 | 0.01 | 38 | 1009.9 |
| 20260503033004 | 56 | 0 | 0.0 | 8.0 | 0.00 | 0.01 | 0.01 | 38 | 1010.0 |
| 20260503032904 | 56 | 0 | 0.0 | 8.0 | 0.00 | 0.01 | 0.01 | 38 | 1009.9 |
| 20260503032804 | 56 | 0 | 0.0 | 8.0 | 0.00 | 0.01 | 0.01 | 38 | 1009.9 |
| 20260503032704 | 56 | 0 | 0.0 | 8.0 | 0.00 | 0.01 | 0.01 | 38 | 1009.9 |
| 20260503032604 | 56 | 0 | 0.0 | 8.0 | 0.00 | 0.01 | 0.01 | 38 | 1009.9 |
| 20260503032504 | 56 | 0 | 0.0 | 8.0 | 0.00 | 0.01 | 0.01 | 38 | 1009.9 |
| 20260503032404 | 56 | 0 | 0.0 | 8.0 | 0.00 | 0.01 | 0.01 | 38 | 1009.9 |
| 20260503032304 | 56 | 0 | 0.0 | 8.0 | 0.00 | 0.01 | 0.01 | 38 | 1009.9 |
| 20260503032204 | 56 | 0 | 0.0 | 8.0 | 0.00 | 0.01 | 0.01 | 38 | 1009.9 |
| 20260503032104 | 56 | 0 | 0.0 | 8.0 | 0.00 | 0.01 | 0.01 | 38 | 1009.9 |
| 20260503032004 | 56 | 0 | 0.0 | 8.0 | 0.00 | 0.01 | 0.01 | 38 | 1009.8 |
| 20260503031904 | 56 | 0 | 0.0 | 8.0 | 0.00 | 0.01 | 0.01 | 38 | 1009.9 |
| 20260503031804 | 56 | 0 | 0.0 | 8.0 | 0.00 | 0.01 | 0.01 | 38 | 1009.9 |
| 20260503031704 | 56 | 0 | 0.0 | 8.0 | 0.00 | 0.01 | 0.01 | 38 | 1009.9 |
| 20260503031604 | 56 | 0 | 0.0 | 8.0 | 0.00 | 0.01 | 0.01 | 38 | 1009.9 |
| 20260503031504 | 56 | 0 | 0.0 | 8.0 | 0.00 | 0.01 | 0.01 | 38 | 1009.9 |
| 20260503031403 | 56 | 0 | 0.0 | 8.0 | 0.00 | 0.01 | 0.01 | 38 | 1009.9 |
| 20260503031303 | 56 | 0 | 0.0 | 8.0 | 0.00 | 0.01 | 0.01 | 38 | 1009.9 |
| 20260503031204 | 56 | 0 | 0.0 | 8.0 | 0.00 | 0.01 | 0.01 | 38 | 1009.8 |
| 20260503031103 | 56 | 0 | 0.0 | 8.0 | 0.00 | 0.01 | 0.01 | 38 | 1009.8 |
| 20260503031003 | 56 | 0 | 0.0 | 8.0 | 0.00 | 0.01 | 0.01 | 38 | 1009.9 |
| 20260503030903 | 56 | 0 | 0.0 | 8.0 | 0.00 | 0.01 | 0.01 | 38 | 1009.8 |
| 20260503030803 | 56 | 0 | 0.0 | 8.0 | 0.00 | 0.01 | 0.01 | 38 | 1009.8 |
| 20260503030703 | 56 | 0 | 0.0 | 8.0 | 0.00 | 0.01 | 0.01 | 38 | 1009.9 |
| 20260503030603 | 56 | 0 | 0.0 | 8.0 | 0.00 | 0.01 | 0.01 | 38 | 1009.9 |
| 20260503030503 | 56 | 0 | 0.0 | 8.0 | 0.00 | 0.01 | 0.01 | 38 | 1009.9 |
| 20260503030404 | 56 | 0 | 0.0 | 8.0 | 0.00 | 0.01 | 0.01 | 38 | 1009.9 |
| 20260503030303 | 56 | 0 | 0.0 | 8.0 | 0.00 | 0.01 | 0.01 | 38 | 1009.9 |
| 20260503030203 | 56 | 0 | 0.0 | 8.0 | 0.00 | 0.01 | 0.01 | 38 | 1009.9 |
| 20260503030103 | 56 | 0 | 0.0 | 8.0 | 0.00 | 0.01 | 0.01 | 38 | 1009.8 |
| 20260503030004 | 56 | 0 | 0.0 | 8.0 | 0.00 | 0.01 | 0.01 | 38 | 1009.8 |
| 20260503025903 | 56 | 0 | 0.0 | 8.0 | 0.00 | 0.01 | 0.01 | 38 | 1009.8 |
| 20260503025803 | 56 | 0 | 0.0 | 8.0 | 0.00 | 0.01 | 0.01 | 38 | 1009.8 |
| 20260503025703 | 56 | 0 | 0.0 | 8.0 | 0.00 | 0.01 | 0.01 | 38 | 1009.8 |
| 20260503025603 | 56 | 0 | 0.0 | 8.0 | 0.00 | 0.01 | 0.01 | 38 | 1009.9 |
| 20260503025524 | 56 | 0 | 0.0 | 8.0 | 0.00 | 0.01 | 0.01 | 38 | 1009.9 |
| 20260503025424 | 56 | 0 | 0.0 | 8.0 | 0.00 | 0.01 | 0.01 | 38 | 1009.8 |
| 20260503025324 | 56 | 0 | 0.0 | 8.0 | 0.00 | 0.01 | 0.01 | 38 | 1009.9 |
| 20260503025224 | 56 | 0 | 0.0 | 8.0 | 0.00 | 0.01 | 0.01 | 38 | 1009.9 |
| 20260503025124 | 56 | 0 | 0.0 | 8.0 | 0.00 | 0.01 | 0.01 | 38 | 1009.9 |
| 20260503025003 | 56 | 0 | 0.0 | 8.0 | 0.00 | 0.01 | 0.01 | 38 | 1009.9 |
| 20260503024904 | 56 | 0 | 0.0 | 8.0 | 0.00 | 0.01 | 0.01 | 38 | 1009.9 |
| 20260503024804 | 56 | 0 | 0.0 | 8.0 | 0.00 | 0.01 | 0.01 | 38 | 1009.9 |
| 20260503024704 | 56 | 0 | 0.0 | 8.0 | 0.00 | 0.01 | 0.01 | 38 | 1009.9 |
| 20260503024604 | 56 | 0 | 0.0 | 8.0 | 0.00 | 0.01 | 0.01 | 38 | 1009.9 |
| 20260503024504 | 56 | 0 | 0.0 | 8.0 | 0.00 | 0.01 | 0.01 | 38 | 1009.9 |
| 20260503024425 | 56 | 0 | 0.0 | 8.0 | 0.00 | 0.01 | 0.01 | 38 | 1009.9 |
| 20260503024325 | 56 | 0 | 0.0 | 8.0 | 0.00 | 0.01 | 0.01 | 38 | 1009.8 |
| 20260503024225 | 56 | 0 | 0.0 | 8.0 | 0.00 | 0.01 | 0.01 | 38 | 1009.8 |
| 20260503024125 | 56 | 0 | 0.0 | 8.0 | 0.00 | 0.01 | 0.01 | 38 | 1009.9 |
| 20260503024004 | 56 | 0 | 0.0 | 8.0 | 0.00 | 0.01 | 0.01 | 38 | 1009.9 |
| 20260503023904 | 56 | 0 | 0.0 | 8.0 | 0.00 | 0.01 | 0.01 | 38 | 1009.9 |
| 20260503023804 | 56 | 0 | 0.0 | 8.0 | 0.00 | 0.01 | 0.01 | 38 | 1009.8 |
| 20260503023704 | 56 | 0 | 0.0 | 8.0 | 0.00 | 0.01 | 0.01 | 38 | 1009.9 |
| 20260503023603 | 56 | 0 | 0.0 | 8.0 | 0.00 | 0.01 | 0.01 | 38 | 1009.9 |
| 20260503023504 | 56 | 0 | 0.0 | 8.0 | 0.00 | 0.01 | 0.01 | 38 | 1009.9 |
| 20260503023404 | 56 | 0 | 0.0 | 8.0 | 0.00 | 0.01 | 0.01 | 38 | 1009.9 |
| 20260503023304 | 56 | 0 | 0.0 | 8.0 | 0.00 | 0.01 | 0.01 | 38 | 1009.9 |
| 20260503023204 | 56 | 0 | 0.0 | 8.0 | 0.00 | 0.01 | 0.01 | 38 | 1009.8 |
| 20260503023104 | 56 | 0 | 0.0 | 8.0 | 0.00 | 0.01 | 0.01 | 38 | 1009.8 |
| 20260503023004 | 56 | 0 | 0.0 | 8.0 | 0.00 | 0.01 | 0.01 | 38 | 1009.9 |
| 20260503022904 | 56 | 0 | 0.0 | 8.0 | 0.00 | 0.01 | 0.01 | 38 | 1009.9 |
| 20260503022804 | 56 | 0 | 0.0 | 8.0 | 0.00 | 0.01 | 0.01 | 38 | 1009.8 |
| 20260503022704 | 56 | 0 | 0.0 | 8.0 | 0.00 | 0.01 | 0.01 | 38 | 1010.0 |
| 20260503022604 | 56 | 0 | 0.0 | 8.0 | 0.00 | 0.01 | 0.01 | 38 | 1010.0 |
| 20260503022504 | 56 | 0 | 0.0 | 8.0 | 0.00 | 0.01 | 0.01 | 38 | 1010.0 |
| 20260503022404 | 56 | 0 | 0.0 | 8.0 | 0.00 | 0.01 | 0.01 | 38 | 1010.0 |
| 20260503022305 | 56 | 0 | 0.0 | 8.0 | 0.00 | 0.01 | 0.01 | 38 | 1010.0 |
| 20260503022204 | 56 | 0 | 0.0 | 8.0 | 0.00 | 0.01 | 0.01 | 38 | 1010.0 |
| 20260503022104 | 56 | 0 | 0.0 | 8.0 | 0.00 | 0.01 | 0.01 | 38 | 1010.0 |
| 20260503022004 | 56 | 0 | 0.0 | 8.0 | 0.00 | 0.01 | 0.01 | 38 | 1010.0 |
| 20260503021904 | 56 | 0 | 0.0 | 8.0 | 0.00 | 0.01 | 0.01 | 38 | 1010.1 |
| 20260503021804 | 56 | 0 | 0.0 | 8.0 | 0.00 | 0.01 | 0.01 | 38 | 1010.1 |
| 20260503021704 | 56 | 0 | 0.0 | 8.0 | 0.00 | 0.01 | 0.01 | 38 | 1010.0 |
| 20260503021604 | 56 | 0 | 0.0 | 8.0 | 0.00 | 0.01 | 0.01 | 38 | 1010.0 |
| 20260503021504 | 56 | 0 | 0.0 | 8.0 | 0.00 | 0.01 | 0.01 | 38 | 1010.0 |
| 20260503021404 | 56 | 0 | 0.0 | 8.0 | 0.00 | 0.01 | 0.01 | 38 | 1010.0 |
| 20260503021304 | 56 | 0 | 0.0 | 8.0 | 0.00 | 0.01 | 0.01 | 38 | 1010.0 |
| 20260503021204 | 56 | 0 | 0.0 | 8.0 | 0.00 | 0.01 | 0.01 | 38 | 1010.0 |
| 20260503021104 | 56 | 0 | 0.0 | 8.0 | 0.00 | 0.01 | 0.01 | 38 | 1010.0 |
| 20260503021004 | 56 | 0 | 0.0 | 8.0 | 0.00 | 0.01 | 0.01 | 38 | 1010.0 |
| 20260503020904 | 56 | 0 | 0.0 | 8.0 | 0.00 | 0.01 | 0.01 | 38 | 1010.0 |
| 20260503020804 | 56 | 0 | 0.0 | 8.0 | 0.00 | 0.01 | 0.01 | 38 | 1010.0 |
| 20260503020704 | 56 | 0 | 0.0 | 8.0 | 0.00 | 0.01 | 0.01 | 38 | 1010.0 |
| 20260503020604 | 56 | 0 | 0.0 | 8.0 | 0.00 | 0.01 | 0.01 | 38 | 1010.0 |
| 20260503020504 | 56 | 0 | 0.0 | 8.0 | 0.00 | 0.01 | 0.01 | 38 | 1010.0 |
| 20260503020403 | 56 | 0 | 0.0 | 8.0 | 0.00 | 0.01 | 0.01 | 38 | 1010.0 |
| 20260503020304 | 56 | 0 | 0.0 | 8.0 | 0.00 | 0.01 | 0.01 | 38 | 1010.0 |
| 20260503020204 | 56 | 0 | 0.0 | 8.0 | 0.00 | 0.01 | 0.01 | 38 | 1010.0 |
| 20260503020104 | 56 | 0 | 0.0 | 8.0 | 0.00 | 0.01 | 0.01 | 38 | 1010.0 |
| 20260503020004 | 56 | 0 | 0.0 | 8.0 | 0.00 | 0.01 | 0.01 | 38 | 1010.0 |
| 20260503015903 | 56 | 0 | 0.0 | 8.0 | 0.00 | 0.01 | 0.01 | 38 | 1010.0 |
| 20260503015803 | 56 | 0 | 0.0 | 8.0 | 0.00 | 0.01 | 0.01 | 38 | 1010.0 |
| 20260503015703 | 56 | 0 | 0.0 | 8.0 | 0.00 | 0.01 | 0.01 | 38 | 1010.0 |
| 20260503015603 | 56 | 0 | 0.0 | 8.0 | 0.00 | 0.01 | 0.01 | 38 | 1009.9 |
| 20260503015503 | 56 | 0 | 0.0 | 8.0 | 0.00 | 0.01 | 0.01 | 38 | 1009.9 |
| 20260503015424 | 56 | 0 | 0.0 | 8.0 | 0.00 | 0.01 | 0.01 | 38 | 1009.9 |
| 20260503015324 | 56 | 0 | 0.0 | 8.0 | 0.00 | 0.01 | 0.01 | 38 | 1009.9 |
| 20260503015224 | 56 | 0 | 0.0 | 8.0 | 0.00 | 0.01 | 0.01 | 38 | 1009.9 |
| 20260503015124 | 56 | 0 | 0.0 | 8.0 | 0.00 | 0.01 | 0.01 | 38 | 1009.9 |
| 20260503015025 | 56 | 0 | 0.0 | 8.0 | 0.00 | 0.01 | 0.01 | 38 | 1009.9 |
| 20260503014903 | 56 | 0 | 0.0 | 8.0 | 0.00 | 0.01 | 0.01 | 38 | 1009.9 |
| 20260503014803 | 56 | 0 | 0.0 | 8.0 | 0.00 | 0.01 | 0.01 | 38 | 1009.9 |
| 20260503014703 | 56 | 0 | 0.0 | 8.0 | 0.00 | 0.01 | 0.01 | 38 | 1009.9 |
| 20260503014603 | 56 | 0 | 0.0 | 8.0 | 0.00 | 0.01 | 0.01 | 38 | 1010.0 |
| 20260503014503 | 56 | 0 | 0.0 | 8.0 | 0.00 | 0.01 | 0.01 | 38 | 1009.9 |
| 20260503014403 | 56 | 0 | 0.0 | 8.0 | 0.00 | 0.01 | 0.01 | 38 | 1009.9 |
| 20260503014303 | 56 | 0 | 0.0 | 8.0 | 0.00 | 0.01 | 0.01 | 38 | 1009.9 |
| 20260503014203 | 56 | 0 | 0.0 | 8.0 | 0.00 | 0.01 | 0.01 | 38 | 1009.9 |
| 20260503014103 | 56 | 0 | 0.0 | 8.0 | 0.00 | 0.01 | 0.01 | 38 | 1009.9 |
| 20260503014003 | 56 | 0 | 0.0 | 8.0 | 0.00 | 0.01 | 0.01 | 38 | 1009.9 |
| 20260503013903 | 56 | 0 | 0.0 | 8.0 | 0.00 | 0.01 | 0.01 | 38 | 1009.9 |
| 20260503013803 | 56 | 0 | 0.0 | 8.0 | 0.00 | 0.01 | 0.01 | 38 | 1009.9 |
| 20260503013703 | 56 | 0 | 0.0 | 8.0 | 0.00 | 0.01 | 0.01 | 38 | 1009.9 |
| 20260503013603 | 56 | 0 | 0.0 | 8.0 | 0.00 | 0.01 | 0.01 | 38 | 1009.9 |
| 20260503013503 | 56 | 0 | 0.0 | 8.0 | 0.00 | 0.01 | 0.01 | 38 | 1009.9 |
| 20260503013403 | 56 | 0 | 0.0 | 8.0 | 0.00 | 0.01 | 0.01 | 38 | 1009.9 |
| 20260503013303 | 56 | 0 | 0.0 | 8.0 | 0.00 | 0.01 | 0.01 | 38 | 1009.9 |
| 20260503013203 | 56 | 0 | 0.0 | 8.0 | 0.00 | 0.01 | 0.01 | 38 | 1009.8 |
| 20260503013103 | 56 | 0 | 0.0 | 8.0 | 0.00 | 0.01 | 0.01 | 38 | 1009.8 |
| 20260503013003 | 56 | 0 | 0.0 | 8.0 | 0.00 | 0.01 | 0.01 | 38 | 1009.8 |
| 20260503012903 | 56 | 0 | 0.0 | 8.0 | 0.00 | 0.01 | 0.01 | 38 | 1009.8 |
| 20260503012804 | 56 | 0 | 0.0 | 8.0 | 0.00 | 0.01 | 0.01 | 38 | 1009.8 |
| 20260503012704 | 56 | 0 | 0.0 | 8.0 | 0.00 | 0.01 | 0.01 | 38 | 1009.8 |
| 20260503012604 | 56 | 0 | 0.0 | 8.0 | 0.00 | 0.01 | 0.01 | 38 | 1009.8 |
| 20260503012504 | 56 | 0 | 0.0 | 8.0 | 0.00 | 0.01 | 0.01 | 38 | 1009.9 |
| 20260503012404 | 56 | 0 | 0.0 | 8.0 | 0.00 | 0.01 | 0.01 | 38 | 1009.8 |
| 20260503012305 | 56 | 0 | 0.0 | 8.0 | 0.00 | 0.01 | 0.01 | 38 | 1009.8 |
| 20260503012204 | 56 | 0 | 0.0 | 8.0 | 0.00 | 0.01 | 0.01 | 38 | 1009.8 |
| 20260503012104 | 56 | 0 | 0.0 | 8.0 | 0.00 | 0.01 | 0.01 | 38 | 1009.8 |
| 20260503012004 | 56 | 0 | 0.0 | 8.0 | 0.00 | 0.01 | 0.01 | 38 | 1009.8 |
| 20260503011903 | 56 | 0 | 0.0 | 8.0 | 0.00 | 0.01 | 0.01 | 38 | 1009.7 |
| 20260503011804 | 56 | 0 | 0.0 | 8.0 | 0.00 | 0.01 | 0.01 | 38 | 1009.7 |
| 20260503011704 | 56 | 0 | 0.0 | 8.0 | 0.00 | 0.01 | 0.01 | 38 | 1009.7 |
| 20260503011604 | 56 | 0 | 0.0 | 8.0 | 0.00 | 0.01 | 0.01 | 38 | 1009.7 |
| 20260503011503 | 56 | 0 | 0.0 | 8.0 | 0.00 | 0.01 | 0.01 | 38 | 1009.8 |
| 20260503011403 | 56 | 0 | 0.0 | 8.0 | 0.00 | 0.01 | 0.01 | 38 | 1009.7 |
| 20260503011304 | 56 | 0 | 0.0 | 8.0 | 0.00 | 0.01 | 0.01 | 38 | 1009.7 |
| 20260503011204 | 56 | 0 | 0.0 | 8.0 | 0.00 | 0.01 | 0.01 | 38 | 1009.7 |
| 20260503011104 | 56 | 0 | 0.0 | 8.0 | 0.00 | 0.01 | 0.01 | 38 | 1009.7 |
| 20260503011004 | 56 | 0 | 0.0 | 8.0 | 0.00 | 0.01 | 0.01 | 38 | 1009.7 |
| 20260503010904 | 56 | 0 | 0.0 | 8.0 | 0.00 | 0.01 | 0.01 | 38 | 1009.7 |
| 20260503010803 | 56 | 0 | 0.0 | 8.0 | 0.00 | 0.01 | 0.01 | 38 | 1009.7 |
| 20260503010703 | 56 | 0 | 0.0 | 8.0 | 0.00 | 0.01 | 0.01 | 38 | 1009.7 |
| 20260503010603 | 56 | 0 | 0.0 | 8.0 | 0.00 | 0.01 | 0.01 | 38 | 1009.7 |
| 20260503010504 | 56 | 0 | 0.0 | 8.0 | 0.00 | 0.01 | 0.01 | 38 | 1009.7 |
| 20260503010403 | 56 | 0 | 0.0 | 8.0 | 0.00 | 0.01 | 0.01 | 38 | 1009.7 |
| 20260503010303 | 56 | 0 | 0.0 | 8.0 | 0.00 | 0.01 | 0.01 | 38 | 1009.7 |
| 20260503010203 | 56 | 0 | 0.0 | 8.0 | 0.00 | 0.01 | 0.01 | 38 | 1009.7 |
| 20260503010103 | 56 | 0 | 0.0 | 8.0 | 0.00 | 0.01 | 0.01 | 38 | 1009.6 |
| 20260503010004 | 56 | 0 | 0.0 | 8.0 | 0.00 | 0.01 | 0.01 | 38 | 1009.6 |
| 20260503005903 | 56 | 0 | 0.0 | 8.0 | 0.00 | 0.01 | 0.01 | 38 | 1009.6 |
| 20260503005803 | 56 | 0 | 0.0 | 8.0 | 0.00 | 0.01 | 0.01 | 38 | 1009.6 |
| 20260503005703 | 56 | 0 | 0.0 | 8.0 | 0.00 | 0.01 | 0.01 | 38 | 1009.6 |
| 20260503005603 | 56 | 0 | 0.0 | 8.0 | 0.00 | 0.01 | 0.01 | 38 | 1009.6 |
| 20260503005503 | 56 | 0 | 0.0 | 8.0 | 0.00 | 0.01 | 0.01 | 38 | 1009.6 |
| 20260503005403 | 56 | 0 | 0.0 | 8.0 | 0.00 | 0.01 | 0.01 | 38 | 1009.5 |
| 20260503005304 | 56 | 0 | 0.0 | 8.0 | 0.00 | 0.01 | 0.01 | 38 | 1009.5 |
| 20260503005203 | 56 | 0 | 0.0 | 8.0 | 0.00 | 0.01 | 0.01 | 38 | 1009.5 |
| 20260503005103 | 56 | 0 | 0.0 | 8.0 | 0.00 | 0.01 | 0.01 | 38 | 1009.5 |
| 20260503005003 | 56 | 0 | 0.0 | 8.0 | 0.00 | 0.01 | 0.01 | 38 | 1009.5 |
| 20260503004903 | 56 | 0 | 0.0 | 8.0 | 0.00 | 0.01 | 0.01 | 38 | 1009.5 |
| 20260503004803 | 56 | 0 | 0.0 | 8.0 | 0.00 | 0.01 | 0.01 | 38 | 1009.5 |
| 20260503004703 | 56 | 0 | 0.0 | 8.0 | 0.00 | 0.01 | 0.01 | 38 | 1009.5 |
| 20260503004603 | 56 | 0 | 0.0 | 8.0 | 0.00 | 0.01 | 0.01 | 38 | 1009.5 |
| 20260503004503 | 56 | 0 | 0.0 | 8.0 | 0.00 | 0.01 | 0.01 | 38 | 1009.5 |
| 20260503004403 | 56 | 0 | 0.0 | 8.0 | 0.00 | 0.01 | 0.01 | 38 | 1009.5 |
| 20260503004303 | 56 | 0 | 0.0 | 8.0 | 0.00 | 0.01 | 0.01 | 38 | 1009.5 |
| 20260503004203 | 56 | 0 | 0.0 | 8.0 | 0.00 | 0.01 | 0.01 | 38 | 1009.5 |
| 20260503004104 | 56 | 0 | 0.0 | 8.0 | 0.00 | 0.01 | 0.01 | 38 | 1009.5 |
| 20260503004004 | 56 | 0 | 0.0 | 8.0 | 0.00 | 0.01 | 0.01 | 38 | 1009.5 |
| 20260503003904 | 56 | 0 | 0.0 | 8.0 | 0.00 | 0.01 | 0.01 | 38 | 1009.5 |
| 20260503003804 | 56 | 0 | 0.0 | 8.0 | 0.00 | 0.01 | 0.01 | 38 | 1009.5 |
| 20260503003704 | 56 | 0 | 0.0 | 8.0 | 0.00 | 0.01 | 0.01 | 38 | 1009.5 |
| 20260503003604 | 56 | 0 | 0.0 | 8.0 | 0.00 | 0.01 | 0.01 | 38 | 1009.5 |
| 20260503003504 | 56 | 0 | 0.0 | 8.0 | 0.00 | 0.01 | 0.01 | 38 | 1009.5 |
| 20260503003404 | 56 | 0 | 0.0 | 8.0 | 0.00 | 0.01 | 0.01 | 38 | 1009.5 |
| 20260503003304 | 56 | 0 | 0.0 | 8.0 | 0.00 | 0.01 | 0.01 | 38 | 1009.5 |
| 20260503003225 | 56 | 0 | 0.0 | 8.0 | 0.00 | 0.01 | 0.01 | 38 | 1009.4 |
| 20260503003125 | 56 | 0 | 0.0 | 8.0 | 0.00 | 0.01 | 0.01 | 38 | 1009.4 |
| 20260503003025 | 56 | 0 | 0.0 | 8.0 | 0.00 | 0.01 | 0.01 | 38 | 1009.5 |
| 20260503002925 | 56 | 0 | 0.0 | 8.0 | 0.00 | 0.01 | 0.01 | 38 | 1009.5 |
| 20260503002825 | 56 | 0 | 0.0 | 8.0 | 0.00 | 0.01 | 0.01 | 38 | 1009.5 |
| 20260503002725 | 56 | 0 | 0.0 | 8.0 | 0.00 | 0.01 | 0.01 | 38 | 1009.5 |
| 20260503002625 | 56 | 0 | 0.0 | 8.0 | 0.00 | 0.01 | 0.01 | 38 | 1009.5 |
| 20260503002525 | 56 | 0 | 0.0 | 8.0 | 0.00 | 0.01 | 0.01 | 38 | 1009.5 |
| 20260503002425 | 56 | 0 | 0.0 | 8.0 | 0.00 | 0.01 | 0.01 | 38 | 1009.5 |
| 20260503002325 | 56 | 0 | 0.0 | 8.0 | 0.00 | 0.01 | 0.01 | 38 | 1009.5 |
| 20260503002203 | 56 | 0 | 0.0 | 8.0 | 0.00 | 0.01 | 0.01 | 38 | 1009.5 |
| 20260503002103 | 56 | 0 | 0.0 | 8.0 | 0.00 | 0.01 | 0.01 | 38 | 1009.5 |
| 20260503002003 | 56 | 0 | 0.0 | 8.0 | 0.00 | 0.01 | 0.01 | 38 | 1009.5 |
| 20260503001904 | 56 | 0 | 0.0 | 8.0 | 0.00 | 0.01 | 0.01 | 38 | 1009.4 |
| 20260503001804 | 56 | 0 | 0.0 | 8.0 | 0.00 | 0.01 | 0.01 | 38 | 1009.4 |
| 20260503001703 | 56 | 0 | 0.0 | 8.0 | 0.00 | 0.01 | 0.01 | 38 | 1009.4 |
| 20260503001604 | 56 | 0 | 0.0 | 8.0 | 0.00 | 0.01 | 0.01 | 38 | 1009.4 |
| 20260503001503 | 56 | 0 | 0.0 | 8.0 | 0.00 | 0.01 | 0.01 | 38 | 1009.4 |
| 20260503001404 | 56 | 0 | 0.0 | 8.0 | 0.00 | 0.01 | 0.01 | 38 | 1009.4 |
| 20260503001304 | 56 | 0 | 0.0 | 8.0 | 0.00 | 0.01 | 0.01 | 38 | 1009.4 |
| 20260503001224 | 56 | 0 | 0.0 | 8.0 | 0.00 | 0.01 | 0.01 | 38 | 1009.4 |
| 20260503001124 | 56 | 0 | 0.0 | 8.0 | 0.00 | 0.01 | 0.01 | 38 | 1009.4 |
| 20260503001024 | 56 | 0 | 0.0 | 8.0 | 0.00 | 0.01 | 0.01 | 38 | 1009.4 |
| 20260503000924 | 56 | 0 | 0.0 | 8.0 | 0.00 | 0.01 | 0.01 | 38 | 1009.4 |
| 20260503000824 | 56 | 0 | 0.0 | 8.0 | 0.00 | 0.01 | 0.01 | 38 | 1009.4 |
| 20260503000703 | 56 | 0 | 0.0 | 8.0 | 0.00 | 0.01 | 0.01 | 38 | 1009.4 |
| 20260503000604 | 56 | 0 | 0.0 | 8.0 | 0.00 | 0.01 | 0.01 | 38 | 1009.4 |
| 20260503000503 | 56 | 0 | 0.0 | 8.0 | 0.00 | 0.01 | 0.01 | 38 | 1009.4 |
| 20260503000403 | 56 | 0 | 0.0 | 8.0 | 0.00 | 0.01 | 0.01 | 38 | 1009.3 |
| 20260503000304 | 56 | 0 | 0.0 | 8.0 | 0.00 | 0.01 | 0.01 | 38 | 1009.3 |
| 20260503000204 | 56 | 0 | 0.0 | 8.0 | 0.00 | 0.01 | 0.01 | 38 | 1009.3 |
| 20260503000104 | 56 | 0 | 0.0 | 8.0 | 0.00 | 0.01 | 0.01 | 38 | 1009.3 |
| 20260503000004 | 56 | 0 | 0.0 | 8.0 | 0.00 | 0.01 | 0.01 | 38 | 1009.3 |
| 20260502235904 | 56 | 0 | 0.0 | 8.0 | 0.00 | 0.01 | 0.01 | 38 | 1009.2 |
| 20260502235804 | 56 | 0 | 0.0 | 8.0 | 0.00 | 0.01 | 0.01 | 38 | 1009.2 |
| 20260502235704 | 56 | 0 | 0.0 | 8.0 | 0.00 | 0.01 | 0.01 | 38 | 1009.3 |
| 20260502235604 | 56 | 0 | 0.0 | 8.0 | 0.00 | 0.01 | 0.01 | 38 | 1009.3 |
| 20260502235504 | 56 | 0 | 0.0 | 8.0 | 0.00 | 0.01 | 0.01 | 38 | 1009.3 |
| 20260502235404 | 56 | 0 | 0.0 | 8.0 | 0.00 | 0.01 | 0.01 | 38 | 1009.3 |
| 20260502235305 | 56 | 0 | 0.0 | 8.0 | 0.00 | 0.01 | 0.01 | 38 | 1009.2 |
| 20260502235204 | 56 | 0 | 0.0 | 8.0 | 0.00 | 0.01 | 0.01 | 38 | 1009.3 |
| 20260502235103 | 56 | 0 | 0.0 | 8.0 | 0.00 | 0.01 | 0.01 | 38 | 1009.3 |
| 20260502235003 | 56 | 0 | 0.0 | 8.0 | 0.00 | 0.01 | 0.01 | 38 | 1009.2 |
| 20260502234903 | 56 | 0 | 0.0 | 8.0 | 0.00 | 0.01 | 0.01 | 38 | 1009.2 |
| 20260502234803 | 56 | 0 | 0.0 | 8.0 | 0.00 | 0.01 | 0.01 | 38 | 1009.2 |
| 20260502234703 | 56 | 0 | 0.0 | 8.0 | 0.00 | 0.01 | 0.01 | 38 | 1009.2 |
| 20260502234603 | 56 | 0 | 0.0 | 8.0 | 0.00 | 0.01 | 0.01 | 38 | 1009.2 |
| 20260502234503 | 56 | 0 | 0.0 | 8.0 | 0.00 | 0.01 | 0.01 | 38 | 1009.1 |
| 20260502234403 | 56 | 0 | 0.0 | 8.0 | 0.00 | 0.01 | 0.01 | 38 | 1009.2 |
| 20260502234303 | 56 | 0 | 0.0 | 8.0 | 0.00 | 0.01 | 0.01 | 38 | 1009.2 |
| 20260502234203 | 56 | 0 | 0.0 | 8.0 | 0.00 | 0.01 | 0.01 | 38 | 1009.2 |
| 20260502234125 | 56 | 0 | 0.0 | 8.0 | 0.00 | 0.01 | 0.01 | 38 | 1009.2 |
| 20260502234025 | 56 | 0 | 0.0 | 8.0 | 0.00 | 0.01 | 0.01 | 38 | 1009.1 |
| 20260502233925 | 56 | 0 | 0.0 | 8.0 | 0.00 | 0.01 | 0.01 | 38 | 1009.1 |
| 20260502233825 | 56 | 0 | 0.0 | 8.0 | 0.00 | 0.01 | 0.01 | 38 | 1009.1 |
| 20260502233725 | 56 | 0 | 0.0 | 8.0 | 0.00 | 0.01 | 0.01 | 38 | 1009.0 |
| 20260502233604 | 56 | 0 | 0.0 | 8.0 | 0.00 | 0.01 | 0.01 | 38 | 1009.0 |
| 20260502233504 | 56 | 0 | 0.0 | 8.0 | 0.00 | 0.01 | 0.01 | 38 | 1009.0 |
| 20260502233404 | 56 | 0 | 0.0 | 8.0 | 0.00 | 0.01 | 0.01 | 38 | 1009.0 |
| 20260502233304 | 56 | 0 | 0.0 | 8.0 | 0.00 | 0.01 | 0.01 | 38 | 1009.0 |
| 20260502233204 | 56 | 0 | 0.0 | 8.0 | 0.00 | 0.01 | 0.01 | 38 | 1009.0 |
| 20260502233103 | 56 | 0 | 0.0 | 8.0 | 0.00 | 0.01 | 0.01 | 38 | 1009.0 |
| 20260502233003 | 56 | 17 | 0.0 | 8.0 | 0.00 | 0.01 | 0.01 | 38 | 1008.9 |
| 20260502232904 | 56 | 17 | 0.0 | 8.0 | 0.00 | 0.01 | 0.01 | 38 | 1008.9 |
| 20260502232803 | 56 | 17 | 0.0 | 8.0 | 0.00 | 0.01 | 0.01 | 38 | 1008.9 |
| 20260502232704 | 56 | 14 | 0.0 | 8.0 | 0.00 | 0.01 | 0.01 | 38 | 1008.9 |
| 20260502232603 | 56 | 14 | 0.0 | 8.0 | 0.00 | 0.01 | 0.01 | 38 | 1008.9 |
| 20260502232504 | 56 | 14 | 0.0 | 8.0 | 0.00 | 0.01 | 0.01 | 38 | 1008.9 |
| 20260502232403 | 56 | 14 | 0.0 | 8.0 | 0.00 | 0.01 | 0.01 | 37 | 1008.9 |
| 20260502232305 | 56 | 14 | 0.0 | 8.0 | 0.00 | 0.01 | 0.01 | 37 | 1008.9 |
| 20260502232203 | 56 | 15 | 1.0 | 9.0 | 0.00 | 0.01 | 0.01 | 37 | 1008.9 |
| 20260502232124 | 56 | 16 | 1.0 | 10.0 | 0.00 | 0.01 | 0.01 | 37 | 1008.9 |
| 20260502232024 | 56 | 16 | 1.0 | 10.0 | 0.00 | 0.01 | 0.01 | 37 | 1008.9 |
| 20260502231924 | 56 | 16 | 1.0 | 10.0 | 0.00 | 0.01 | 0.01 | 38 | 1008.9 |
| 20260502231824 | 57 | 16 | 2.0 | 10.0 | 0.00 | 0.01 | 0.01 | 37 | 1008.8 |
| 20260502231724 | 57 | 17 | 2.0 | 10.0 | 0.00 | 0.01 | 0.01 | 37 | 1008.8 |
| 20260502231603 | 57 | 17 | 2.0 | 10.0 | 0.00 | 0.01 | 0.01 | 37 | 1008.8 |